CW1648 Weather Reports


time (UTC)temp
C
wind
direction
speed
KPH
gust
KPH
rain 1hr
cm
rain 24hr
cm
rain mn
cm
humidity
%
barometer
mb
20260507011102 18 0 0.0 0.0 0.03 0.38 0.38 84 1005.8
20260507011020 18 360 0.0 0.0 0.03 0.38 0.38 84 1005.9
20260507010932 18 0 0.0 0.0 0.03 0.38 0.38 84 1005.9
20260507010826 18 0 0.0 0.0 0.03 0.38 0.38 84 1005.9
20260507010726 18 0 0.0 0.0 0.00 0.36 0.38 84 1006.0
20260507010625 18 0 0.0 0.0 0.00 0.36 0.36 84 1006.0
20260507010534 18 360 0.0 0.0 0.00 0.36 0.36 83 1006.0
20260507010525 18 0 0.0 0.0 0.00 0.36 0.36 83 1006.1
20260507010424 18 0 0.0 0.0 0.00 0.36 0.36 83 1006.0
20260507010325 18 0 0.0 0.0 0.00 0.36 0.36 83 1005.9
20260507010225 18 0 0.0 0.0 0.00 0.36 0.36 82 1005.8
20260507010124 18 0 0.0 0.0 0.00 0.36 0.36 82 1005.8
20260507010024 18 0 0.0 0.0 0.00 0.36 0.36 82 1005.8
20260507010020 18 360 0.0 0.0 0.00 0.36 0.36 82 1005.8
20260507005923 18 0 0.0 0.0 0.00 0.36 0.36 82 1005.8
20260507005821 18 0 0.0 0.0 0.00 0.36 0.36 82 1005.8
20260507005722 18 0 0.0 0.0 0.00 0.36 0.36 82 1005.8
20260507005621 18 0 0.0 0.0 0.00 0.36 0.36 82 1005.7
20260507005520 18 0 0.0 0.0 0.00 0.36 0.36 82 1005.7
20260507005420 18 0 0.0 0.0 0.00 0.36 0.36 82 1005.9
20260507005320 18 0 0.0 0.0 0.00 0.36 0.36 82 1005.9
20260507005219 18 0 0.0 0.0 0.00 0.36 0.36 82 1006.0
20260507005119 18 0 0.0 0.0 0.00 0.36 0.36 82 1006.0
20260507005050 18 360 0.0 0.0 0.00 0.36 0.36 82 1005.9
20260507005018 18 0 0.0 0.0 0.00 0.36 0.36 82 1005.9
20260507004959 18 0 0.0 0.0 0.00 0.36 0.36 82 1005.9
20260507004948 18 0 0.0 0.0 0.00 0.36 0.36 82 1005.9
20260507004725 18 0 0.0 0.0 0.00 0.36 0.36 82 1005.8
20260507004520 18 360 0.0 0.0 0.00 0.36 0.36 82 1005.6
20260507004516 18 0 0.0 0.0 0.00 0.36 0.36 82 1005.6
20260507004417 18 0 0.0 0.0 0.00 0.36 0.36 82 1005.6
20260507004316 18 0 0.0 0.0 0.00 0.36 0.36 82 1005.6
20260507004215 18 0 0.0 4.8 0.00 0.36 0.36 82 1005.6
20260507004114 18 0 0.0 6.4 0.00 0.36 0.36 82 1005.6
20260507004020 18 360 0.0 6.4 0.00 0.36 0.36 82 1005.6
20260507004014 18 0 0.0 6.4 0.00 0.36 0.36 82 1005.6
20260507003914 18 0 0.0 6.4 0.00 0.36 0.36 82 1005.6
20260507003813 18 0 0.0 6.4 0.00 0.36 0.36 82 1005.5
20260507003713 18 0 0.0 6.4 0.00 0.36 0.36 82 1005.4
20260507003640 18 0 0.0 6.4 0.00 0.36 0.36 82 1005.4
20260507003612 18 0 0.0 6.4 0.00 0.36 0.36 82 1005.4
20260507003550 18 360 0.0 6.4 0.00 0.36 0.36 82 1005.4
20260507003529 18 0 0.0 6.4 0.00 0.36 0.36 82 1005.4
20260507003411 18 0 0.0 6.4 0.00 0.36 0.36 82 1005.5
20260507003311 18 0 0.0 6.4 0.00 0.36 0.36 82 1005.4
20260507003211 18 0 0.0 6.4 0.00 0.36 0.36 82 1005.4
20260507003138 18 0 0.0 3.2 0.00 0.36 0.36 82 1005.1
20260507003110 18 0 0.0 3.2 0.00 0.36 0.36 82 1005.2
20260507003027 18 0 0.0 3.2 0.00 0.36 0.36 82 1005.1
20260507003020 18 360 0.0 3.2 0.00 0.36 0.36 82 1005.2
20260507002909 18 0 0.0 3.2 0.00 0.36 0.36 82 1005.1
20260507002809 18 0 0.0 3.2 0.00 0.36 0.36 82 1005.1
20260507002709 18 0 0.0 3.2 0.00 0.36 0.36 82 1005.0
20260507002608 18 0 0.0 3.2 0.00 0.36 0.36 82 1005.1
20260507002520 18 360 0.0 1.6 0.00 0.36 0.36 82 1005.2
20260507002508 18 0 0.0 1.6 0.00 0.36 0.36 82 1005.1
20260507002416 18 0 0.0 1.6 0.00 0.36 0.36 82 1005.1
20260507002408 19 0 0.0 0.0 0.00 0.36 0.36 82 1005.1
20260507002307 19 0 0.0 0.0 0.00 0.36 0.36 82 1005.1
20260507002221 19 0 0.0 0.0 0.00 0.36 0.36 82 1005.2
20260507002215 19 0 0.0 0.0 0.00 0.36 0.36 82 1005.1
20260507002020 19 360 0.0 0.0 0.00 0.36 0.36 82 1005.2
20260507002005 19 0 0.0 0.0 0.00 0.36 0.36 82 1005.1
20260507001906 19 0 0.0 0.0 0.00 0.36 0.36 82 1005.1
20260507001805 19 0 0.0 4.8 0.00 0.36 0.36 82 1005.2
20260507001757 19 0 0.0 4.8 0.00 0.36 0.36 82 1005.2
20260507001753 19 0 0.0 4.8 0.00 0.36 0.36 81 1005.2
20260507001749 19 0 0.0 4.8 0.00 0.36 0.36 81 1005.2
20260507001743 19 0 0.0 4.8 0.00 0.36 0.36 82 1005.2
20260507001534 19 360 0.0 4.8 0.00 0.36 0.36 82 1005.3
20260507001404 19 0 0.0 4.8 0.00 0.36 0.36 81 1005.2
20260507001304 19 0 0.0 4.8 0.00 0.36 0.36 81 1005.1
20260507001204 19 0 0.0 4.8 0.00 0.36 0.36 81 1005.1
20260507001103 19 0 0.0 8.0 0.00 0.36 0.36 81 1005.2
20260507001022 19 0 0.0 8.0 0.00 0.36 0.36 81 1005.2
20260507001020 19 360 0.0 4.8 0.00 0.36 0.36 81 1005.2
20260507001009 19 0 0.0 8.0 0.00 0.36 0.36 81 1005.1
20260507000823 19 0 0.0 8.0 0.00 0.36 0.36 81 1005.1
20260507000709 19 0 1.6 8.0 0.00 0.36 0.36 81 1005.1
20260507000520 19 360 0.0 4.8 0.00 0.36 0.36 81 1005.2
20260507000457 19 0 1.6 8.0 0.00 0.36 0.36 81 1005.1
20260507000414 19 0 1.6 8.0 0.00 0.36 0.36 81 1005.1
20260507000357 19 0 1.6 8.0 0.00 0.36 0.36 81 1005.1
20260507000258 19 0 1.6 8.0 0.00 0.36 0.36 81 1005.1
20260507000155 19 0 1.6 8.0 0.00 0.36 0.36 81 1005.1
20260507000055 19 0 1.6 6.4 0.00 0.36 0.36 81 1005.1
20260507000035 19 360 0.0 6.4 0.00 0.36 0.36 81 1005.1
20260506235955 19 0 1.6 6.4 0.00 0.36 0.36 81 1005.0
20260506235913 19 0 1.6 6.4 0.00 0.36 0.36 81 1005.1
20260506235907 19 0 0.0 6.4 0.00 0.36 0.36 81 1004.9
20260506235902 19 0 1.6 6.4 0.00 0.36 0.36 81 1005.1
20260506235653 19 0 0.0 6.4 0.00 0.36 0.36 81 1004.9
20260506235551 19 0 0.0 6.4 0.00 0.36 0.36 81 1004.9
20260506235538 19 0 0.0 6.4 0.00 0.36 0.36 81 1004.9
20260506235534 19 0 0.0 0.0 0.00 0.36 0.36 81 1004.9
20260506235529 19 0 0.0 0.0 0.00 0.36 0.36 81 1004.9
20260506235520 19 360 0.0 6.4 0.00 0.36 0.36 81 1005.0
20260506235515 19 0 0.0 6.4 0.00 0.36 0.36 81 1004.9
20260506235050 19 0 0.0 0.0 0.00 0.36 0.36 81 1004.9
20260506235020 19 360 0.0 8.0 0.00 0.36 0.36 81 1005.0
20260506234950 19 0 0.0 8.0 0.00 0.36 0.36 81 1004.9
20260506234912 19 0 0.0 8.0 0.00 0.36 0.36 81 1004.9
20260506234849 19 0 0.0 8.0 0.00 0.36 0.36 81 1004.9
20260506234749 19 0 0.0 8.0 0.00 0.36 0.36 81 1004.9
20260506234649 19 0 0.0 8.0 0.00 0.36 0.36 81 1004.9
20260506234635 19 0 0.0 8.0 0.00 0.36 0.36 81 1004.9
20260506234628 19 0 0.0 8.0 0.00 0.36 0.36 81 1004.8
20260506234520 19 360 0.0 8.0 0.00 0.36 0.36 81 1005.0
20260506234347 19 0 0.0 8.0 0.00 0.36 0.36 81 1004.9
20260506234247 19 0 0.0 8.0 0.00 0.36 0.36 81 1004.9
20260506234146 19 0 0.0 8.0 0.00 0.36 0.36 81 1005.0
20260506234133 19 0 0.0 1.6 0.00 0.36 0.36 81 1005.0
20260506234045 19 0 0.0 8.0 0.00 0.36 0.36 81 1005.0
20260506234020 19 360 0.0 3.2 0.00 0.36 0.36 81 1005.1
20260506233843 19 0 0.0 0.0 0.00 0.36 0.36 81 1005.0
20260506233744 19 0 0.0 0.0 0.00 0.36 0.36 81 1004.9
20260506233644 19 0 0.0 1.6 0.00 0.36 0.36 81 1004.9
20260506233543 19 0 0.0 1.6 0.00 0.36 0.36 81 1004.9
20260506233520 19 360 0.0 1.6 0.00 0.36 0.36 81 1005.0
20260506233502 19 0 0.0 1.6 0.00 0.36 0.36 81 1004.8
20260506233457 19 0 0.0 1.6 0.00 0.36 0.36 81 1004.9
20260506233449 19 0 0.0 1.6 0.00 0.36 0.36 81 1004.8
20260506233247 19 0 0.0 1.6 0.00 0.36 0.36 81 1004.9
20260506233243 19 0 0.0 1.6 0.00 0.36 0.36 81 1004.9
20260506233236 19 0 0.0 1.6 0.00 0.36 0.36 81 1004.8
20260506233232 19 0 0.0 1.6 0.00 0.36 0.36 81 1004.8
20260506233228 19 0 0.0 1.6 0.00 0.36 0.36 81 1004.8
20260506233222 19 0 0.0 1.6 0.00 0.36 0.36 81 1004.9
20260506233103 19 0 0.0 1.6 0.00 0.36 0.36 81 1004.8
20260506233020 19 360 0.0 1.6 0.00 0.36 0.36 81 1004.9
20260506232655 19 0 0.0 0.0 0.00 0.36 0.36 81 1004.8
20260506232650 19 0 0.0 0.0 0.00 0.36 0.36 81 1004.8
20260506232604 19 360 0.0 0.0 0.00 0.36 0.36 81 1004.9
20260506232438 19 0 0.0 0.0 0.00 0.36 0.36 81 1004.8
20260506232406 19 0 0.0 0.0 0.00 0.36 0.36 81 1004.8
20260506232338 19 0 0.0 0.0 0.00 0.36 0.36 81 1004.8
20260506232237 19 0 0.0 0.0 0.00 0.36 0.36 80 1004.8
20260506232137 19 0 0.0 0.0 0.00 0.36 0.36 80 1004.9
20260506232037 19 0 0.0 0.0 0.00 0.36 0.36 80 1004.9
20260506232035 19 360 0.0 0.0 0.00 0.36 0.36 80 1004.9
20260506231936 19 0 0.0 0.0 0.00 0.36 0.36 80 1004.9
20260506231906 19 0 0.0 0.0 0.00 0.36 0.36 80 1004.9
20260506231836 19 0 0.0 0.0 0.00 0.36 0.36 80 1004.9
20260506231816 19 0 0.0 0.0 0.00 0.36 0.36 80 1004.9
20260506231811 19 0 0.0 0.0 0.00 0.36 0.36 80 1004.9
20260506231807 19 0 0.0 0.0 0.00 0.36 0.36 80 1004.9
20260506231801 19 0 0.0 0.0 0.00 0.36 0.36 80 1004.9
20260506231520 20 360 0.0 0.0 0.00 0.36 0.36 80 1004.9
20260506231406 20 0 0.0 0.0 0.00 0.36 0.36 80 1004.9
20260506231333 20 0 0.0 0.0 0.00 0.36 0.36 80 1004.9
20260506231233 20 0 0.0 0.0 0.00 0.36 0.36 79 1004.9
20260506231132 20 0 0.0 0.0 0.00 0.36 0.36 79 1004.9
20260506231049 20 360 0.0 0.0 0.00 0.36 0.36 80 1004.8
20260506231031 20 0 0.0 0.0 0.00 0.36 0.36 80 1004.8
20260506230931 20 0 0.0 0.0 0.00 0.36 0.36 80 1004.8
20260506230905 20 0 0.0 0.0 0.00 0.36 0.36 79 1004.9
20260506230831 20 0 0.0 0.0 0.00 0.36 0.36 79 1004.9
20260506230731 20 0 0.0 0.0 0.00 0.36 0.36 79 1005.0
20260506230631 20 0 0.0 0.0 0.00 0.36 0.36 79 1005.0
20260506230611 20 0 0.0 0.0 0.00 0.36 0.36 79 1004.9
20260506230519 20 360 0.0 0.0 0.00 0.36 0.36 79 1005.0
20260506230459 20 0 0.0 0.0 0.00 0.36 0.36 79 1005.0
20260506230445 20 0 0.0 0.0 0.00 0.36 0.36 79 1005.0
20260506230134 20 0 0.0 0.0 0.00 0.36 0.36 79 1004.9
20260506230130 20 0 0.0 0.0 0.00 0.36 0.36 79 1004.9
20260506230123 20 0 0.0 0.0 0.00 0.36 0.36 79 1004.9
20260506230119 20 0 0.0 0.0 0.00 0.36 0.36 79 1004.9
20260506230114 20 0 0.0 0.0 0.00 0.36 0.36 79 1004.9
20260506230110 20 0 0.0 0.0 0.00 0.36 0.36 78 1004.9
20260506230105 20 0 0.0 4.8 0.00 0.36 0.36 78 1004.9
20260506230100 20 0 0.0 0.0 0.00 0.36 0.36 79 1005.0
20260506230050 20 0 0.0 0.0 0.00 0.36 0.36 79 1005.0
20260506230043 20 0 0.0 0.0 0.00 0.36 0.36 79 1004.9
20260506230019 20 360 0.0 0.0 0.00 0.36 0.36 79 1005.0
20260506225519 20 360 0.0 0.0 0.00 0.36 0.36 79 1004.9
20260506225451 20 0 0.0 4.8 0.00 0.36 0.36 78 1004.9
20260506225340 20 0 0.0 4.8 0.00 0.36 0.36 78 1004.9
20260506225037 20 0 0.0 4.8 0.00 0.36 0.36 78 1004.7
20260506225031 20 0 0.0 4.8 0.00 0.36 0.36 78 1004.8
20260506225019 20 360 0.0 4.8 0.00 0.36 0.36 78 1004.7
20260506224902 20 0 0.0 4.8 0.00 0.36 0.36 78 1004.7
20260506224837 20 0 0.0 4.8 0.00 0.36 0.36 78 1004.8
20260506224831 20 0 0.0 4.8 0.00 0.36 0.36 78 1004.7
20260506224622 20 0 0.0 4.8 0.00 0.36 0.36 78 1004.8
20260506224522 20 0 0.0 16.1 0.00 0.36 0.36 78 1004.8
20260506224520 20 360 0.0 16.1 0.00 0.36 0.36 78 1004.8
20260506224421 20 0 0.0 16.1 0.00 0.36 0.36 78 1004.8
20260506224400 20 0 0.0 16.1 0.00 0.36 0.36 78 1004.8
20260506224320 20 0 0.0 16.1 0.00 0.36 0.36 78 1004.8
20260506224220 20 0 0.0 16.1 0.00 0.36 0.36 78 1004.8
20260506224119 20 0 0.0 16.1 0.00 0.36 0.36 78 1004.8
20260506224050 20 360 0.0 16.1 0.00 0.36 0.36 77 1004.8
20260506224019 20 0 1.6 16.1 0.00 0.36 0.36 78 1004.7
20260506223918 20 0 1.6 16.1 0.00 0.36 0.36 78 1004.8
20260506223859 20 0 1.6 16.1 0.00 0.36 0.36 78 1004.7
20260506223818 20 215 1.6 16.1 0.00 0.36 0.36 78 1004.7
20260506223718 20 223 1.6 16.1 0.00 0.36 0.36 77 1004.7
20260506223618 20 240 1.6 16.1 0.00 0.36 0.36 77 1004.7
20260506223520 20 231 0.0 16.1 0.00 0.36 0.36 77 1004.8
20260506223517 20 230 1.6 16.1 0.00 0.36 0.36 77 1004.7
20260506223417 20 205 1.6 16.1 0.00 0.36 0.36 77 1004.8
20260506223357 20 218 3.2 16.1 0.00 0.36 0.36 77 1004.8
20260506223316 20 184 3.2 16.1 0.00 0.36 0.36 77 1004.8
20260506223216 20 205 3.2 16.1 0.00 0.36 0.36 77 1004.8
20260506223116 20 213 3.2 16.1 0.00 0.36 0.36 78 1004.7
20260506223050 20 223 0.0 12.9 0.00 0.36 0.36 78 1004.7
20260506223015 20 223 3.2 12.9 0.00 0.36 0.36 78 1004.7
20260506222914 20 210 3.2 12.9 0.00 0.36 0.36 79 1004.7
20260506222858 20 231 3.2 12.9 0.00 0.36 0.36 78 1004.7
20260506222813 20 193 3.2 12.9 0.00 0.36 0.36 78 1004.7
20260506222712 20 193 3.2 12.9 0.00 0.36 0.36 78 1004.6
20260506222611 20 223 3.2 12.9 0.00 0.36 0.36 78 1004.6
20260506222519 20 219 8.0 12.9 0.00 0.36 0.36 79 1004.5
20260506222511 20 219 3.2 12.9 0.00 0.36 0.36 79 1004.5
20260506222411 20 207 3.2 11.3 0.00 0.36 0.36 79 1004.5
20260506222358 20 182 3.2 11.3 0.00 0.36 0.36 79 1004.5
20260506222310 20 245 3.2 9.7 0.00 0.36 0.36 79 1004.5
20260506222209 20 206 3.2 9.7 0.00 0.36 0.36 79 1004.4
20260506222109 20 198 3.2 9.7 0.00 0.36 0.36 79 1004.4
20260506222020 20 360 0.0 9.7 0.00 0.36 0.36 79 1004.4
20260506222007 20 0 3.2 9.7 0.00 0.36 0.36 79 1004.4
20260506221907 20 0 3.2 9.7 0.00 0.36 0.36 79 1004.5
20260506221857 20 0 3.2 9.7 0.00 0.36 0.36 79 1004.5
20260506221806 20 0 4.8 9.7 0.00 0.36 0.36 79 1004.5
20260506221706 20 0 4.8 9.7 0.00 0.36 0.36 79 1004.5
20260506221606 20 0 4.8 9.7 0.00 0.36 0.36 79 1004.5
20260506221506 20 0 4.8 9.7 0.00 0.36 0.36 79 1004.4
20260506221405 20 0 3.2 9.7 0.00 0.36 0.36 79 1004.4
20260506221354 20 0 3.2 9.7 0.00 0.36 0.36 79 1004.4
20260506221305 20 0 3.2 8.0 0.00 0.36 0.36 79 1004.5
20260506221204 20 0 3.2 8.0 0.00 0.36 0.36 79 1004.5
20260506221103 20 0 3.2 8.0 0.00 0.36 0.36 79 1004.6
20260506221020 20 360 3.2 8.0 0.00 0.36 0.36 79 1004.6
20260506221004 20 0 3.2 8.0 0.00 0.36 0.36 79 1004.6
20260506220901 20 0 3.2 8.0 0.00 0.36 0.36 79 1004.6
20260506220853 20 0 3.2 8.0 0.00 0.36 0.36 79 1004.6
20260506220801 20 0 3.2 8.0 0.00 0.36 0.36 79 1004.6
20260506220715 20 0 3.2 8.0 0.00 0.36 0.36 80 1004.6
20260506220709 20 0 3.2 8.0 0.00 0.36 0.36 79 1004.6
20260506220520 20 360 1.6 8.0 0.00 0.36 0.36 80 1004.6
20260506220500 20 220 3.2 8.0 0.00 0.36 0.36 80 1004.6
20260506220418 20 0 4.8 12.9 0.00 0.36 0.36 80 1004.8
20260506220409 20 0 4.8 12.9 0.00 0.36 0.36 79 1004.8
20260506220404 20 226 3.2 12.9 0.00 0.36 0.36 80 1004.6
20260506220358 20 226 3.2 12.9 0.00 0.36 0.36 80 1004.6
20260506220350 20 232 4.8 12.9 0.00 0.36 0.36 80 1004.6
20260506220236 20 232 4.8 12.9 0.00 0.36 0.36 80 1004.7
20260506220118 20 0 4.8 12.9 0.00 0.36 0.36 80 1004.8
20260506220035 20 360 3.2 12.9 0.00 0.36 0.36 80 1004.8
20260506215711 20 0 4.8 16.1 0.00 0.36 0.36 79 1004.8
20260506215707 20 257 4.8 16.1 0.00 0.36 0.36 79 1004.7
20260506215701 20 254 4.8 16.1 0.00 0.36 0.36 79 1004.8
20260506215520 20 360 3.2 16.1 0.00 0.36 0.36 79 1004.7
20260506215507 20 0 4.8 16.1 0.00 0.36 0.36 79 1004.7
20260506215352 20 248 4.8 16.1 0.00 0.36 0.36 79 1004.7
20260506215250 20 220 3.2 16.1 0.00 0.36 0.36 80 1004.7
20260506215207 20 240 3.2 16.1 0.00 0.36 0.36 80 1004.5
20260506215202 20 211 3.2 16.1 0.00 0.36 0.36 80 1004.6
20260506215020 20 200 4.8 16.1 0.00 0.36 0.36 80 1004.5
20260506214950 20 200 3.2 16.1 0.00 0.36 0.36 80 1004.5
20260506214855 20 204 3.2 16.1 0.00 0.36 0.36 81 1004.6
20260506214850 20 206 3.2 16.1 0.00 0.36 0.36 81 1004.6
20260506214749 20 207 3.2 9.7 0.00 0.36 0.36 81 1004.5
20260506214649 20 209 3.2 12.9 0.00 0.36 0.36 80 1004.5
20260506214548 20 257 3.2 12.9 0.00 0.36 0.36 80 1004.5
20260506214520 20 257 1.6 12.9 0.00 0.36 0.36 81 1004.4
20260506214448 20 257 3.2 12.9 0.00 0.36 0.36 81 1004.4
20260506214347 20 256 3.2 12.9 0.00 0.36 0.36 81 1004.4
20260506214246 20 259 3.2 12.9 0.00 0.36 0.36 81 1004.4
20260506214146 20 210 3.2 12.9 0.00 0.36 0.36 81 1004.4
20260506214045 20 210 3.2 12.9 0.00 0.36 0.36 80 1004.4
20260506214019 20 211 3.2 12.9 0.00 0.36 0.36 80 1004.5
20260506213945 20 196 3.2 12.9 0.00 0.36 0.36 80 1004.5
20260506213852 19 211 3.2 12.9 0.00 0.36 0.36 80 1004.5
20260506213845 20 211 3.2 12.9 0.00 0.36 0.36 80 1004.5
20260506213744 19 230 3.2 12.9 0.00 0.36 0.36 81 1004.5
20260506213643 19 215 3.2 12.9 0.00 0.36 0.36 81 1004.5
20260506213543 19 202 3.2 8.0 0.00 0.36 0.36 81 1004.5
20260506213520 19 246 3.2 8.0 0.00 0.36 0.36 81 1004.5
20260506213443 19 240 3.2 8.0 0.00 0.36 0.36 81 1004.5
20260506213350 19 240 3.2 8.0 0.00 0.36 0.36 81 1004.4
20260506213342 19 0 3.2 8.0 0.00 0.36 0.36 81 1004.4
20260506213242 19 238 3.2 8.0 0.00 0.36 0.36 81 1004.4
20260506213142 19 0 3.2 8.0 0.00 0.36 0.36 82 1004.5
20260506213050 19 360 3.2 9.7 0.00 0.36 0.36 81 1004.5
20260506213040 19 0 3.2 9.7 0.00 0.36 0.36 81 1004.4
20260506213023 19 0 4.8 12.9 0.00 0.36 0.36 81 1004.3
20260506213019 19 227 3.2 12.9 0.00 0.36 0.36 82 1004.2
20260506213012 19 0 3.2 9.7 0.00 0.36 0.36 81 1004.5
20260506213004 19 0 3.2 12.9 0.00 0.36 0.36 81 1004.4
20260506212540 19 202 3.2 12.9 0.00 0.36 0.36 81 1004.1
20260506212520 19 202 4.8 12.9 0.00 0.36 0.36 81 1004.2
20260506212439 19 190 3.2 12.9 0.00 0.36 0.36 81 1004.1
20260506212350 19 216 3.2 12.9 0.00 0.36 0.36 82 1004.1
20260506212339 19 225 3.2 12.9 0.00 0.36 0.36 82 1004.1
20260506212238 19 0 3.2 12.9 0.00 0.36 0.36 82 1004.1
20260506212137 19 0 3.2 12.9 0.00 0.36 0.36 82 1004.1
20260506212037 19 0 3.2 12.9 0.00 0.36 0.36 82 1004.1
20260506212020 19 360 4.8 12.9 0.00 0.36 0.36 82 1004.1
20260506211937 19 0 3.2 12.9 0.00 0.36 0.36 82 1004.0
20260506211849 19 0 3.2 9.7 0.00 0.36 0.36 82 1004.1
20260506211836 19 0 3.2 9.7 0.00 0.36 0.36 82 1004.1
20260506211736 19 0 3.2 9.7 0.00 0.36 0.36 82 1004.1
20260506211636 18 0 3.2 9.7 0.00 0.36 0.36 82 1004.2
20260506211535 18 0 3.2 9.7 0.00 0.36 0.36 82 1004.2
20260506211519 18 360 3.2 9.7 0.00 0.36 0.36 82 1004.3
20260506211502 18 0 3.2 9.7 0.00 0.36 0.36 82 1004.2
20260506211343 18 0 3.2 9.7 0.00 0.36 0.36 82 1004.2
20260506211133 18 0 4.8 12.9 0.00 0.36 0.36 82 1004.2
20260506211033 18 0 4.8 12.9 0.00 0.36 0.36 82 1004.1
20260506211020 18 360 3.2 12.9 0.00 0.36 0.36 82 1004.3
20260506210932 18 0 4.8 12.9 0.00 0.36 0.36 82 1004.2
20260506210834 18 0 4.8 12.9 0.00 0.36 0.36 82 1004.2
20260506210733 18 0 4.8 12.9 0.00 0.36 0.36 82 1004.2
20260506210655 18 0 4.8 12.9 0.00 0.36 0.36 82 1004.2
20260506210542 18 0 4.8 12.9 0.00 0.36 0.36 82 1004.2
20260506210520 18 360 4.8 12.9 0.00 0.36 0.36 82 1004.3
20260506210332 18 0 4.8 12.9 0.00 0.36 0.36 82 1004.2
20260506210232 18 0 4.8 9.7 0.00 0.36 0.36 83 1004.2
20260506210213 18 0 4.8 9.7 0.00 0.36 0.36 83 1004.1
20260506210031 18 0 4.8 9.7 0.00 0.36 0.36 83 1004.1
20260506210020 18 360 4.8 9.7 0.00 0.36 0.36 83 1004.2
20260506205953 18 0 4.8 12.9 0.00 0.36 0.36 83 1004.1
20260506205828 18 0 4.8 12.9 0.00 0.36 0.36 83 1004.2
20260506205727 18 0 4.8 12.9 0.00 0.36 0.36 83 1004.2
20260506205706 18 0 4.8 12.9 0.00 0.36 0.36 83 1004.3
20260506205554 18 0 4.8 16.1 0.00 0.36 0.36 82 1004.3
20260506205549 18 0 4.8 16.1 0.00 0.36 0.36 83 1004.2
20260506205520 18 360 3.2 12.9 0.00 0.36 0.36 82 1004.4
20260506205431 18 0 4.8 16.1 0.00 0.36 0.36 82 1004.3
20260506205222 18 0 4.8 16.1 0.00 0.36 0.36 82 1004.4
20260506205135 18 0 4.8 16.1 0.00 0.36 0.36 82 1004.3
20260506205131 18 0 4.8 16.1 0.00 0.36 0.36 82 1004.3
20260506205020 18 360 4.8 12.9 0.00 0.36 0.36 82 1004.4
20260506204949 18 0 4.8 16.1 0.00 0.36 0.36 82 1004.3
20260506204940 18 0 4.8 16.1 0.00 0.36 0.36 82 1004.3
20260506204830 18 0 4.8 16.1 0.00 0.36 0.36 83 1004.3
20260506204621 18 0 4.8 16.1 0.00 0.36 0.36 83 1004.3
20260506204520 18 360 4.8 19.3 0.00 0.36 0.36 83 1004.3
20260506204437 18 0 6.4 19.3 0.00 0.36 0.36 83 1004.1
20260506204433 18 0 4.8 19.3 0.00 0.36 0.36 83 1004.2
20260506204424 18 0 6.4 19.3 0.00 0.36 0.36 83 1004.1
20260506204218 18 0 6.4 19.3 0.00 0.36 0.36 82 1004.1
20260506204118 18 0 6.4 19.3 0.00 0.36 0.36 82 1004.1
20260506204028 18 0 6.4 19.3 0.00 0.36 0.36 82 1004.2
20260506204024 18 0 6.4 19.3 0.00 0.36 0.36 82 1004.1
20260506204020 18 360 4.8 19.3 0.00 0.36 0.36 82 1004.3
20260506203842 18 0 6.4 19.3 0.00 0.36 0.36 82 1004.2
20260506203816 18 0 6.4 19.3 0.00 0.36 0.36 82 1004.2
20260506203716 18 0 4.8 19.3 0.00 0.36 0.36 82 1004.1
20260506203614 18 0 6.4 19.3 0.00 0.36 0.36 82 1004.0
20260506203520 18 360 6.4 16.1 0.00 0.36 0.36 82 1004.1
20260506203514 18 0 6.4 16.1 0.00 0.36 0.36 82 1004.0
20260506203414 18 0 6.4 17.7 0.00 0.36 0.36 83 1004.0
20260506203342 18 0 6.4 17.7 0.00 0.36 0.36 83 1004.1
20260506203315 18 0 6.4 17.7 0.00 0.36 0.36 83 1004.1
20260506203215 18 0 6.4 17.7 0.00 0.36 0.36 83 1004.1
20260506203113 18 0 6.4 17.7 0.00 0.36 0.36 84 1004.1
20260506203020 18 360 6.4 17.7 0.00 0.36 0.36 84 1004.2
20260506203013 18 0 6.4 17.7 0.00 0.36 0.36 84 1004.1
20260506202913 18 0 8.0 17.7 0.00 0.36 0.36 83 1004.0
20260506202839 18 0 8.0 17.7 0.00 0.36 0.36 83 1004.0
20260506202812 18 0 6.4 17.7 0.00 0.36 0.36 83 1004.1
20260506202713 18 0 6.4 17.7 0.00 0.36 0.36 83 1004.0
20260506202612 18 0 6.4 17.7 0.00 0.36 0.36 83 1003.9
20260506202519 18 360 8.0 17.7 0.00 0.36 0.36 84 1004.1
20260506202511 18 0 6.4 17.7 0.00 0.36 0.36 84 1004.0
20260506202412 18 0 6.4 17.7 0.00 0.36 0.36 83 1003.9
20260506202312 18 0 6.4 17.7 0.00 0.36 0.36 83 1003.9
20260506202211 18 0 6.4 17.7 0.00 0.36 0.36 84 1004.0
20260506202124 18 0 6.4 17.7 0.00 0.36 0.36 84 1004.0
20260506202120 18 0 6.4 17.7 0.00 0.36 0.36 83 1004.0
20260506202020 18 360 9.7 17.7 0.00 0.36 0.36 83 1004.1
20260506201910 18 0 6.4 14.5 0.00 0.36 0.36 84 1004.1
20260506201840 18 0 6.4 14.5 0.00 0.36 0.36 84 1004.1
20260506201810 18 0 6.4 14.5 0.00 0.36 0.36 84 1003.9
20260506201707 18 0 6.4 14.5 0.00 0.36 0.36 84 1004.0
20260506201620 18 0 6.4 16.1 0.00 0.36 0.36 84 1004.0
20260506201616 18 0 6.4 14.5 0.00 0.36 0.36 84 1003.9
20260506201520 18 360 0.0 16.1 0.00 0.36 0.36 84 1004.1
20260506201426 18 0 6.4 16.1 0.00 0.36 0.36 83 1004.1
20260506201420 18 0 6.4 16.1 0.00 0.36 0.36 84 1004.1
20260506201412 18 0 6.4 16.1 0.00 0.36 0.36 84 1004.1
20260506201205 18 0 4.8 16.1 0.00 0.36 0.36 84 1004.1
20260506201118 18 0 3.2 16.1 0.00 0.36 0.36 84 1004.2
20260506201114 18 0 4.8 16.1 0.00 0.36 0.36 84 1004.1
20260506201020 18 360 6.4 16.1 0.00 0.36 0.36 84 1004.3
20260506200903 18 0 3.2 16.1 0.00 0.36 0.36 84 1004.2
20260506200837 18 0 3.2 16.1 0.00 0.36 0.36 84 1004.2
20260506200803 18 0 3.2 16.1 0.00 0.36 0.36 84 1004.2
20260506200703 18 0 1.6 16.1 0.00 0.36 0.36 84 1004.2
20260506200603 18 0 1.6 16.1 0.00 0.36 0.36 84 1004.3
20260506200557 18 0 0.0 4.8 0.00 0.36 0.36 84 1004.3
20260506200553 18 0 1.6 8.0 0.00 0.36 0.36 84 1004.2
20260506200546 18 0 0.0 14.5 0.00 0.36 0.36 84 1004.3
20260506200520 18 360 16.1 16.1 0.00 0.36 0.36 84 1004.4
20260506200429 18 0 0.0 8.0 0.00 0.36 0.36 84 1004.3
20260506200318 18 0 1.6 8.0 0.00 0.36 0.36 84 1004.2
20260506200035 18 360 0.0 8.0 0.00 0.36 0.36 84 1004.5
20260506195959 18 0 3.2 8.0 0.00 0.36 0.36 84 1004.4
20260506195834 18 0 3.2 8.0 0.00 0.36 0.36 84 1004.3
20260506195758 18 0 3.2 8.0 0.00 0.36 0.36 84 1004.4
20260506195658 18 0 3.2 14.5 0.00 0.36 0.36 84 1004.4
20260506195605 18 0 4.8 16.1 0.00 0.36 0.36 84 1004.5
20260506195600 18 0 4.8 14.5 0.00 0.36 0.36 84 1004.4
20260506195551 18 0 4.8 14.5 0.00 0.36 0.36 84 1004.5
20260506195520 18 360 0.0 12.9 0.00 0.36 0.36 84 1004.6
20260506195256 18 0 4.8 16.1 0.00 0.36 0.36 84 1004.4
20260506195156 18 0 4.8 16.1 0.00 0.36 0.36 84 1004.5
20260506195055 18 0 4.8 16.1 0.00 0.36 0.36 84 1004.5
20260506195019 18 360 6.4 16.1 0.00 0.36 0.36 84 1004.5
20260506194955 18 0 4.8 16.1 0.00 0.36 0.36 84 1004.4
20260506194832 18 0 6.4 16.1 0.00 0.36 0.36 84 1004.4
20260506194754 18 0 6.4 16.1 0.00 0.36 0.36 84 1004.5
20260506194654 18 0 6.4 20.9 0.00 0.36 0.36 84 1004.4
20260506194551 18 0 6.4 20.9 0.00 0.36 0.36 84 1004.4
20260506194534 18 360 12.9 20.9 0.00 0.36 0.36 84 1004.5
20260506194523 18 0 4.8 20.9 0.00 0.36 0.36 85 1004.4
20260506194519 18 0 6.4 20.9 0.00 0.36 0.36 84 1004.4
20260506194514 18 0 6.4 20.9 0.00 0.36 0.36 84 1004.4
20260506194357 18 0 4.8 20.9 0.00 0.36 0.36 85 1004.4
20260506194149 18 0 6.4 20.9 0.00 0.36 0.36 85 1004.3
20260506194048 18 0 6.4 20.9 0.00 0.36 0.36 85 1004.4
20260506194020 18 360 4.8 20.9 0.00 0.36 0.36 85 1004.4
20260506193948 18 0 6.4 20.9 0.00 0.36 0.36 85 1004.3
20260506193848 18 0 4.8 20.9 0.00 0.36 0.36 85 1004.3
20260506193831 18 0 4.8 20.9 0.00 0.36 0.36 85 1004.3
20260506193747 17 0 4.8 20.9 0.00 0.36 0.36 85 1004.2
20260506193645 17 0 4.8 16.1 0.00 0.36 0.36 85 1004.3
20260506193542 17 0 4.8 16.1 0.00 0.36 0.36 85 1004.2
20260506193520 17 360 4.8 16.1 0.00 0.36 0.36 85 1004.3
20260506193440 17 0 3.2 12.9 0.00 0.36 0.36 85 1004.2
20260506193341 17 0 3.2 12.9 0.00 0.36 0.36 85 1004.3
20260506193329 17 0 3.2 12.9 0.00 0.36 0.36 85 1004.3
20260506193240 17 0 3.2 20.9 0.00 0.36 0.36 85 1004.4
20260506193140 17 0 4.8 20.9 0.00 0.36 0.36 86 1004.3
20260506193057 17 0 4.8 20.9 0.00 0.36 0.36 86 1004.5
20260506193041 17 0 4.8 20.9 0.00 0.36 0.36 86 1004.4
20260506193020 17 360 1.6 20.9 0.00 0.36 0.36 86 1004.6
20260506192947 17 0 4.8 20.9 0.00 0.36 0.36 86 1004.5
20260506192938 17 0 4.8 20.9 0.00 0.36 0.36 86 1004.5
20260506192739 17 0 4.8 20.9 0.00 0.36 0.36 86 1004.5
20260506192639 17 0 6.4 20.9 0.00 0.36 0.36 86 1004.5
20260506192550 17 0 8.0 22.5 0.00 0.36 0.36 86 1004.5
20260506192546 17 0 8.0 22.5 0.00 0.36 0.36 86 1004.5
20260506192520 17 360 0.0 22.5 0.00 0.36 0.36 86 1004.6
20260506192330 17 0 8.0 22.5 0.00 0.36 0.36 86 1004.4
20260506192236 17 0 8.0 22.5 0.00 0.36 0.36 86 1004.4
20260506192137 17 0 8.0 22.5 0.00 0.36 0.36 86 1004.4
20260506192104 17 0 8.0 22.5 0.00 0.36 0.36 86 1004.5
20260506192059 17 0 8.0 22.5 0.00 0.36 0.36 86 1004.4
20260506192054 17 0 8.0 22.5 0.00 0.36 0.36 86 1004.4
20260506192019 17 360 1.6 22.5 0.00 0.36 0.36 86 1004.5
20260506191936 17 0 8.0 22.5 0.00 0.36 0.36 86 1004.5
20260506191752 17 0 6.4 22.5 0.00 0.36 0.36 86 1004.5
20260506191748 17 0 8.0 22.5 0.00 0.36 0.36 85 1004.4
20260506191635 17 0 8.0 22.5 0.00 0.36 0.36 85 1004.5
20260506191628 17 0 6.4 22.5 0.00 0.36 0.36 87 1004.6
20260506191623 17 0 6.4 22.5 0.00 0.36 0.36 87 1004.7
20260506191617 17 0 6.4 22.5 0.00 0.36 0.36 86 1004.5
20260506191608 17 0 6.4 22.5 0.00 0.36 0.36 86 1004.5
20260506191520 17 360 8.0 19.3 0.00 0.36 0.36 86 1004.6
20260506191034 17 0 6.4 22.5 0.00 0.36 0.36 87 1004.6
20260506191020 17 360 14.5 17.7 0.00 0.36 0.36 87 1004.6
20260506190946 17 0 6.4 22.5 0.00 0.36 0.36 86 1004.5
20260506190942 17 0 6.4 22.5 0.00 0.36 0.36 87 1004.5
20260506190826 17 0 6.4 22.5 0.00 0.36 0.36 86 1004.5
20260506190803 17 0 6.4 22.5 0.00 0.36 0.36 87 1004.7
20260506190759 17 0 6.4 17.7 0.00 0.36 0.36 87 1004.6
20260506190755 17 0 6.4 20.9 0.00 0.36 0.36 87 1004.7
20260506190750 17 0 6.4 22.5 0.00 0.36 0.36 86 1004.6
20260506190520 17 360 6.4 17.7 0.00 0.36 0.36 87 1004.8
20260506190439 17 0 6.4 17.7 0.00 0.36 0.36 87 1004.7
20260506190430 17 0 6.4 20.9 0.00 0.36 0.36 87 1004.7
20260506190230 17 0 6.4 20.9 0.00 0.36 0.36 87 1004.7
20260506190143 17 0 6.4 20.9 0.00 0.36 0.36 87 1004.6
20260506190139 17 0 6.4 20.9 0.00 0.36 0.36 87 1004.7
20260506190105 17 360 4.8 17.7 0.00 0.36 0.36 87 1004.6
20260506185929 17 0 6.4 20.9 0.00 0.36 0.36 87 1004.5
20260506185823 17 0 6.4 20.9 0.00 0.36 0.36 87 1004.5
20260506185728 17 0 6.4 20.9 0.00 0.36 0.36 87 1004.6
20260506185628 17 0 6.4 20.9 0.00 0.36 0.36 88 1004.6
20260506185526 17 0 6.4 20.9 0.00 0.36 0.36 88 1004.7
20260506185519 17 360 0.0 17.7 0.00 0.36 0.36 88 1004.9
20260506185452 17 0 6.4 17.7 0.00 0.36 0.36 88 1004.8
20260506185338 17 0 4.8 17.7 0.00 0.36 0.36 88 1004.8
20260506185334 17 0 4.8 17.7 0.00 0.36 0.36 88 1004.8
20260506185123 17 0 6.4 17.7 0.00 0.36 0.36 88 1004.8
20260506185035 17 360 6.4 17.7 0.00 0.36 0.36 88 1004.9
20260506185021 17 0 6.4 17.7 0.00 0.36 0.36 88 1004.8
20260506184919 17 0 6.4 17.7 0.00 0.36 0.36 88 1004.8
20260506184822 17 0 6.4 17.7 0.00 0.36 0.36 88 1004.8
20260506184817 17 0 6.4 17.7 0.00 0.36 0.36 88 1004.8
20260506184716 17 0 6.4 14.5 0.00 0.36 0.36 88 1004.9
20260506184616 17 0 6.4 16.1 0.00 0.36 0.36 88 1004.8
20260506184519 17 360 3.2 16.1 0.00 0.36 0.36 88 1005.0
20260506184516 17 0 8.0 16.1 0.00 0.36 0.36 88 1004.9
20260506184414 16 0 8.0 20.9 0.00 0.36 0.36 88 1004.9
20260506184314 16 0 8.0 20.9 0.00 0.36 0.36 88 1004.9
20260506184214 16 0 8.0 20.9 0.00 0.36 0.36 88 1004.9
20260506184113 16 0 8.0 20.9 0.00 0.36 0.36 88 1005.0
20260506184021 17 360 8.0 20.9 0.00 0.36 0.36 88 1005.0
20260506184013 16 0 8.0 20.9 0.00 0.36 0.36 88 1004.9
20260506183912 16 0 6.4 20.9 0.00 0.36 0.36 88 1005.0
20260506183838 16 0 6.4 20.9 0.00 0.36 0.36 88 1005.0
20260506183832 16 0 8.0 20.9 0.00 0.36 0.36 88 1005.0
20260506183719 16 0 6.4 20.9 0.00 0.36 0.36 88 1005.0
20260506183535 17 360 8.0 22.5 0.00 0.36 0.36 88 1005.1
20260506183509 17 0 6.4 22.5 0.00 0.36 0.36 88 1005.0
20260506183408 17 0 6.4 22.5 0.00 0.36 0.36 88 1005.0
20260506183307 17 0 6.4 22.5 0.00 0.36 0.36 88 1005.0
20260506183207 17 0 6.4 22.5 0.00 0.36 0.36 89 1005.0
20260506183153 17 0 8.0 22.5 0.00 0.36 0.36 88 1005.0
20260506183149 17 0 8.0 27.4 0.00 0.36 0.36 88 1005.0
20260506183145 17 0 8.0 27.4 0.00 0.36 0.36 88 1004.9
20260506183139 17 0 6.4 22.5 0.00 0.36 0.36 89 1005.0
20260506183120 17 360 3.2 22.5 0.00 0.36 0.36 88 1005.1
20260506183021 17 0 8.0 27.4 0.00 0.36 0.36 88 1005.0
20260506182706 17 0 8.0 27.4 0.00 0.36 0.36 88 1004.9
20260506182604 17 0 8.0 27.4 0.00 0.36 0.36 88 1005.0
20260506182543 17 0 8.0 27.4 0.00 0.36 0.36 88 1004.9
20260506182520 17 360 8.0 27.4 0.00 0.36 0.36 88 1005.1
20260506182504 17 0 8.0 27.4 0.00 0.36 0.36 88 1005.0
20260506182427 17 0 8.0 27.4 0.00 0.36 0.36 88 1004.9
20260506182306 17 0 8.0 27.4 0.00 0.36 0.36 88 1004.9
20260506182203 17 0 8.0 27.4 0.00 0.36 0.36 88 1004.8
20260506182102 17 0 8.0 27.4 0.00 0.36 0.36 88 1004.9
20260506182020 17 360 6.4 27.4 0.00 0.36 0.36 88 1005.1
20260506182001 17 0 6.4 27.4 0.00 0.36 0.36 88 1005.0
20260506181901 17 0 6.4 27.4 0.00 0.36 0.36 88 1005.0
20260506181819 17 0 6.4 27.4 0.00 0.36 0.36 88 1005.0
20260506181800 17 0 8.0 27.4 0.00 0.36 0.36 88 1004.9
20260506181700 17 0 8.0 27.4 0.00 0.36 0.36 88 1004.8
20260506181600 17 0 8.0 22.5 0.00 0.36 0.36 88 1004.8
20260506181520 17 360 8.0 22.5 0.00 0.36 0.36 88 1005.1
20260506181458 17 0 8.0 22.5 0.00 0.36 0.36 88 1005.0
20260506181358 17 0 8.0 22.5 0.00 0.36 0.36 87 1004.9
20260506181318 17 0 8.0 22.5 0.00 0.36 0.36 87 1004.9
20260506181310 17 0 8.0 22.5 0.00 0.36 0.36 87 1005.0
20260506181306 17 0 8.0 22.5 0.00 0.36 0.36 87 1004.9
20260506181057 17 0 8.0 22.5 0.00 0.36 0.36 87 1004.9
20260506181020 17 360 4.8 22.5 0.00 0.36 0.36 87 1005.0
20260506180956 17 0 9.7 24.1 0.00 0.36 0.36 87 1004.9
20260506180854 17 0 9.7 25.7 0.00 0.36 0.36 87 1004.9
20260506180818 17 0 9.7 25.7 0.00 0.36 0.36 87 1004.9
20260506180753 17 0 9.7 25.7 0.00 0.36 0.36 87 1004.9
20260506180652 17 0 8.0 25.7 0.00 0.36 0.36 87 1004.9
20260506180552 17 0 8.0 25.7 0.00 0.36 0.36 87 1004.9
20260506180520 17 360 4.8 25.7 0.00 0.36 0.36 87 1005.0
20260506180451 17 0 6.4 25.7 0.00 0.36 0.36 87 1004.9
20260506180350 16 0 8.0 27.4 0.00 0.36 0.36 87 1005.0
20260506180317 16 0 8.0 27.4 0.00 0.36 0.36 87 1005.0
20260506180249 16 0 8.0 27.4 0.00 0.36 0.36 87 1005.0
20260506180149 16 0 8.0 27.4 0.00 0.36 0.36 87 1005.0
20260506180101 16 0 6.4 27.4 0.00 0.36 0.36 88 1005.0
20260506180056 16 0 8.0 27.4 0.00 0.36 0.36 87 1004.8
20260506180035 17 360 22.5 25.7 0.00 0.36 0.36 87 1005.1
20260506175846 16 0 6.4 27.4 0.00 0.36 0.36 88 1005.0
20260506175816 16 0 6.4 27.4 0.00 0.36 0.36 88 1005.0
20260506175745 16 0 8.0 27.4 0.00 0.36 0.36 88 1005.0
20260506175645 16 0 8.0 27.4 0.00 0.36 0.36 88 1005.0
20260506175544 16 0 9.7 27.4 0.00 0.36 0.36 88 1005.0
20260506175535 16 360 6.4 24.1 0.00 0.36 0.36 88 1005.1
20260506175443 16 0 9.7 27.4 0.00 0.36 0.36 88 1005.0
20260506175343 16 0 8.0 24.1 0.00 0.36 0.36 88 1005.1
20260506175316 16 0 8.0 24.1 0.00 0.36 0.36 88 1005.1
20260506175242 16 0 9.7 24.1 0.00 0.36 0.36 88 1005.2
20260506175155 16 0 8.0 24.1 0.00 0.36 0.36 88 1005.2
20260506175151 16 0 9.7 24.1 0.00 0.36 0.36 88 1005.1
20260506175035 16 360 8.0 22.5 0.00 0.36 0.36 88 1005.2
20260506174940 16 0 8.0 22.5 0.00 0.36 0.36 88 1005.1
20260506174906 16 0 8.0 22.5 0.00 0.36 0.36 88 1005.2
20260506174858 16 0 8.0 22.5 0.00 0.36 0.36 88 1005.2
20260506174747 16 0 8.0 22.5 0.00 0.36 0.36 88 1005.2
20260506174538 16 0 8.0 20.9 0.00 0.36 0.36 88 1005.0
20260506174519 16 360 4.8 20.9 0.00 0.36 0.36 88 1005.1
20260506174439 16 0 8.0 20.9 0.00 0.36 0.36 88 1005.0
20260506174338 16 0 8.0 20.9 0.00 0.36 0.36 89 1005.1
20260506174316 16 0 8.0 20.9 0.00 0.36 0.36 89 1005.1
20260506174237 16 0 8.0 20.9 0.00 0.36 0.36 89 1005.1
20260506174150 16 0 8.0 19.3 0.00 0.36 0.36 89 1005.2
20260506174145 16 0 8.0 19.3 0.00 0.36 0.36 89 1005.4
20260506174020 16 360 4.8 19.3 0.00 0.36 0.36 88 1005.2
20260506173936 16 0 8.0 19.3 0.00 0.36 0.36 88 1005.1
20260506173835 16 0 8.0 19.3 0.00 0.36 0.36 89 1005.2
20260506173814 16 0 8.0 19.3 0.00 0.36 0.36 89 1005.2
20260506173735 16 0 8.0 20.9 0.00 0.36 0.36 89 1005.2
20260506173633 16 0 8.0 20.9 0.00 0.36 0.36 89 1005.2
20260506173533 16 0 8.0 20.9 0.00 0.36 0.36 89 1005.1
20260506173520 16 360 8.0 20.9 0.00 0.36 0.36 89 1005.1
20260506173433 16 0 8.0 20.9 0.00 0.36 0.36 89 1005.0
20260506173313 16 0 6.4 20.9 0.00 0.36 0.36 90 1005.0
20260506173232 16 0 6.4 20.9 0.00 0.36 0.36 90 1005.0
20260506173132 16 0 8.0 20.9 0.00 0.36 0.36 90 1005.0
20260506173031 16 0 8.0 20.9 0.00 0.36 0.36 89 1004.9
20260506173020 16 360 3.2 20.9 0.00 0.36 0.36 89 1005.0
20260506172931 16 0 8.0 20.9 0.00 0.36 0.36 89 1004.9
20260506172813 16 0 8.0 20.9 0.00 0.36 0.36 89 1004.9
20260506172729 16 0 8.0 20.9 0.00 0.36 0.36 89 1004.9
20260506172629 16 0 8.0 20.9 0.00 0.36 0.36 90 1005.0
20260506172526 16 0 8.0 20.9 0.00 0.36 0.36 90 1005.0
20260506172520 16 360 3.2 20.9 0.00 0.36 0.36 90 1005.2
20260506172425 16 0 9.7 20.9 0.00 0.36 0.36 90 1005.1
20260506172319 16 0 8.0 19.3 0.00 0.36 0.36 90 1005.2
20260506172314 16 0 9.7 20.9 0.00 0.36 0.36 90 1005.1
20260506172307 16 0 9.7 20.9 0.00 0.36 0.36 90 1005.2
20260506172050 16 360 9.7 19.3 0.00 0.36 0.36 90 1005.4
20260506172024 16 0 8.0 19.3 0.00 0.36 0.36 90 1005.4
20260506171952 16 0 9.7 19.3 0.00 0.36 0.36 90 1005.5
20260506171946 16 0 8.0 19.3 0.00 0.36 0.36 90 1005.4
20260506171937 16 0 9.7 19.3 0.00 0.36 0.36 90 1005.5
20260506171643 16 0 9.7 20.9 0.00 0.36 0.36 90 1005.6
20260506171521 16 0 9.7 20.9 0.00 0.36 0.36 90 1005.7
20260506171428 16 0 8.0 20.9 0.03 0.36 0.36 90 1005.7
20260506171419 16 0 9.7 20.9 0.03 0.36 0.36 90 1005.7
20260506171220 16 0 9.7 20.9 0.03 0.36 0.36 90 1005.6
20260506171119 16 0 9.7 20.9 0.03 0.36 0.36 90 1005.6
20260506171032 16 0 8.0 20.9 0.03 0.36 0.36 90 1005.5
20260506171028 16 0 8.0 20.9 0.03 0.36 0.36 90 1005.6
20260506171020 16 360 14.5 20.9 0.03 0.36 0.36 90 1005.5
20260506170814 16 0 6.4 20.9 0.03 0.36 0.36 90 1005.5
20260506170717 16 0 6.4 20.9 0.03 0.36 0.36 90 1005.5
20260506170616 16 0 6.4 20.9 0.03 0.36 0.36 90 1005.4
20260506170521 16 0 8.0 32.2 0.03 0.36 0.36 90 1005.4
20260506170415 16 0 8.0 32.2 0.03 0.36 0.36 90 1005.4
20260506170316 16 0 6.4 32.2 0.03 0.36 0.36 91 1005.4
20260506170214 16 0 6.4 32.2 0.03 0.36 0.36 91 1005.4
20260506170114 16 0 8.0 32.2 0.03 0.36 0.36 91 1005.5
20260506170045 16 0 9.7 32.2 0.03 0.36 0.36 90 1005.4
20260506170020 16 360 0.0 32.2 0.03 0.36 0.36 90 1005.4
20260506170013 16 0 9.7 32.2 0.03 0.36 0.36 90 1005.4
20260506165925 16 0 9.7 32.2 0.03 0.36 0.36 90 1005.4
20260506165810 16 0 9.7 32.2 0.03 0.36 0.36 90 1005.4
20260506165711 16 0 9.7 32.2 0.05 0.36 0.36 90 1005.4
20260506165637 16 0 8.0 27.4 0.05 0.36 0.36 90 1005.1
20260506165610 16 0 8.0 32.2 0.05 0.36 0.36 90 1005.4
20260506165538 16 0 8.0 27.4 0.05 0.36 0.36 90 1005.1
20260506165533 16 0 8.0 27.4 0.05 0.36 0.36 91 1005.2
20260506165524 16 0 8.0 27.4 0.05 0.36 0.36 91 1005.1
20260506165520 16 360 16.1 27.4 0.05 0.36 0.36 91 1005.3
20260506165209 16 0 6.4 27.4 0.05 0.36 0.36 91 1005.2
20260506165108 16 0 8.0 29.0 0.08 0.36 0.36 91 1005.2
20260506165037 16 0 8.0 32.2 0.08 0.36 0.36 91 1005.0
20260506165035 16 360 9.7 32.2 0.08 0.36 0.36 91 1005.2
20260506165008 16 0 8.0 32.2 0.08 0.36 0.36 91 1005.1
20260506164921 16 0 8.0 32.2 0.08 0.36 0.36 91 1005.0
20260506164806 16 0 8.0 32.2 0.08 0.36 0.36 91 1005.0
20260506164706 16 0 8.0 32.2 0.08 0.36 0.36 91 1005.0
20260506164621 16 0 9.7 32.2 0.08 0.36 0.36 91 1005.0
20260506164615 16 0 8.0 32.2 0.08 0.36 0.36 91 1005.0
20260506164520 16 360 6.4 32.2 0.08 0.36 0.36 91 1005.1
20260506164421 16 0 9.7 32.2 0.10 0.36 0.36 91 1005.1
20260506164412 16 0 9.7 37.0 0.10 0.36 0.36 91 1005.1
20260506164206 16 0 9.7 37.0 0.10 0.36 0.36 91 1005.1
20260506164122 16 0 9.7 37.0 0.10 0.36 0.36 91 1005.1
20260506164118 16 0 9.7 37.0 0.13 0.36 0.36 91 1005.0
20260506164113 16 0 9.7 37.0 0.10 0.36 0.36 91 1005.1
20260506164020 16 360 4.8 30.6 0.10 0.36 0.36 91 1005.2
20260506163920 16 0 9.7 37.0 0.13 0.36 0.36 91 1005.0
20260506163802 16 0 9.7 37.0 0.13 0.36 0.36 91 1005.0
20260506163702 16 0 8.0 37.0 0.13 0.36 0.36 91 1004.9
20260506163602 16 0 8.0 37.0 0.13 0.36 0.36 91 1004.9
20260506163527 16 0 6.4 30.6 0.13 0.36 0.36 92 1005.2
20260506163519 16 360 12.9 30.6 0.13 0.36 0.36 91 1005.0
20260506163501 16 0 8.0 37.0 0.13 0.36 0.36 91 1004.9
20260506163418 16 0 6.4 37.0 0.13 0.36 0.36 91 1005.0
20260506163259 16 0 6.4 24.1 0.13 0.36 0.36 92 1005.2
20260506163159 16 0 6.4 24.1 0.15 0.36 0.36 92 1005.2
20260506163059 16 0 6.4 24.1 0.15 0.36 0.36 92 1005.4
20260506163020 16 360 8.0 17.7 0.15 0.36 0.36 92 1005.3
20260506162958 16 0 6.4 17.7 0.15 0.36 0.36 92 1005.2
20260506162857 16 0 6.4 22.5 0.15 0.36 0.36 92 1005.0
20260506162809 16 0 6.4 22.5 0.15 0.36 0.36 92 1004.9
20260506162756 16 0 6.4 22.5 0.15 0.36 0.36 92 1004.9
20260506162656 16 0 6.4 22.5 0.18 0.36 0.36 92 1004.8
20260506162610 16 0 6.4 22.5 0.18 0.36 0.36 92 1004.9
20260506162605 16 0 4.8 22.5 0.18 0.36 0.36 92 1004.9
20260506162520 16 360 0.0 22.5 0.18 0.36 0.36 92 1005.0
20260506162354 16 0 6.4 22.5 0.18 0.36 0.36 92 1004.9
20260506162308 16 0 4.8 22.5 0.18 0.36 0.36 92 1004.9
20260506162253 16 0 4.8 22.5 0.18 0.36 0.36 92 1004.9
20260506162153 16 0 4.8 22.5 0.18 0.36 0.36 92 1004.9
20260506162053 16 0 3.2 22.5 0.20 0.36 0.36 92 1005.1
20260506162027 16 0 1.6 19.3 0.20 0.36 0.36 92 1005.4
20260506162020 16 360 16.1 22.5 0.20 0.36 0.36 92 1005.3
20260506161951 16 0 1.6 22.5 0.20 0.36 0.36 92 1005.1
20260506161915 16 0 1.6 19.3 0.20 0.36 0.36 92 1005.2
20260506161751 16 0 1.6 19.3 0.20 0.36 0.36 92 1005.4
20260506161650 16 0 1.6 14.5 0.23 0.36 0.36 92 1005.4
20260506161549 16 0 1.6 9.7 0.23 0.36 0.36 92 1005.5
20260506161520 16 360 0.0 9.7 0.23 0.36 0.36 92 1005.7
20260506161450 16 0 1.6 9.7 0.20 0.33 0.36 92 1005.6
20260506161349 16 0 0.0 9.7 0.20 0.33 0.33 92 1005.7
20260506161305 16 0 1.6 8.0 0.20 0.33 0.33 92 1005.8
20260506161248 16 0 1.6 8.0 0.20 0.33 0.33 92 1005.8
20260506161148 16 0 1.6 8.0 0.20 0.33 0.33 92 1005.8
20260506161047 16 0 1.6 8.0 0.23 0.33 0.33 92 1005.8
20260506161020 16 360 0.0 8.0 0.23 0.33 0.33 91 1006.0
20260506160946 16 0 1.6 8.0 0.23 0.33 0.33 91 1005.9
20260506160905 16 0 0.0 8.0 0.23 0.33 0.33 91 1006.0
20260506160852 16 0 0.0 8.0 0.23 0.33 0.33 91 1006.0
20260506160644 16 0 0.0 8.0 0.23 0.33 0.33 91 1006.1
20260506160543 16 0 0.0 4.8 0.23 0.33 0.33 92 1006.2
20260506160520 16 360 0.0 4.8 0.23 0.33 0.33 92 1006.3
20260506160458 16 0 0.0 4.8 0.23 0.33 0.33 91 1006.3
20260506160453 16 0 0.0 4.8 0.23 0.33 0.33 92 1006.2
20260506160303 16 0 0.0 4.8 0.23 0.33 0.33 91 1006.3
20260506160241 16 0 0.0 4.8 0.23 0.33 0.33 91 1006.3
20260506160201 16 0 0.0 4.8 0.23 0.33 0.33 91 1006.3
20260506160050 16 360 0.0 6.4 0.23 0.33 0.33 91 1006.5
20260506160047 16 0 0.0 4.8 0.23 0.33 0.33 91 1006.3
20260506155837 16 0 1.6 17.7 0.23 0.33 0.33 91 1006.3
20260506155819 16 0 1.6 17.7 0.23 0.30 0.30 91 1006.4
20260506155814 16 0 1.6 17.7 0.25 0.33 0.33 91 1006.3
20260506155807 16 0 1.6 17.7 0.25 0.33 0.33 91 1006.3
20260506155654 16 0 1.6 17.7 0.23 0.30 0.30 91 1006.4
20260506155520 16 360 0.0 17.7 0.23 0.30 0.30 91 1006.5
20260506155335 16 0 1.6 17.7 0.23 0.30 0.30 91 1006.5
20260506155234 16 0 1.6 17.7 0.23 0.30 0.30 91 1006.5
20260506155132 16 0 1.6 17.7 0.20 0.28 0.30 91 1006.5
20260506155035 16 360 3.2 17.7 0.20 0.28 0.28 91 1006.6
20260506155032 16 0 0.0 17.7 0.20 0.28 0.28 91 1006.5
20260506154932 16 0 0.0 17.7 0.20 0.28 0.28 91 1006.5
20260506154831 16 0 0.0 4.8 0.20 0.28 0.28 91 1006.6
20260506154730 16 0 0.0 4.8 0.20 0.28 0.28 91 1006.5
20260506154642 16 0 0.0 6.4 0.20 0.28 0.28 90 1006.6
20260506154637 16 0 0.0 4.8 0.20 0.28 0.28 90 1006.6
20260506154520 16 360 0.0 6.4 0.20 0.28 0.28 90 1006.7
20260506154442 16 0 0.0 6.4 0.18 0.25 0.25 90 1006.7
20260506154436 16 0 0.0 6.4 0.18 0.25 0.25 90 1006.6
20260506154259 16 0 0.0 6.4 0.20 0.25 0.25 90 1006.7
20260506154226 16 0 0.0 6.4 0.20 0.25 0.25 90 1006.7
20260506154139 16 0 0.0 9.7 0.20 0.25 0.25 90 1006.7
20260506154134 16 0 0.0 6.4 0.20 0.25 0.25 90 1006.7
20260506154020 16 360 0.0 9.7 0.20 0.25 0.25 90 1006.7
20260506154018 16 0 1.6 9.7 0.18 0.23 0.23 90 1006.6
20260506153925 16 0 0.0 9.7 0.20 0.25 0.25 90 1006.6
20260506153907 16 0 0.0 9.7 0.18 0.23 0.25 90 1006.6
20260506153725 16 0 1.6 14.5 0.18 0.23 0.23 89 1006.6
20260506153623 16 0 1.6 14.5 0.18 0.23 0.23 89 1006.6
20260506153521 16 0 0.0 14.5 0.18 0.23 0.23 89 1006.7
20260506153420 16 0 0.0 14.5 0.20 0.23 0.23 89 1006.6
20260506153338 16 0 0.0 14.5 0.18 0.20 0.20 89 1006.5
20260506153333 16 0 0.0 14.5 0.20 0.23 0.23 89 1006.5
20260506153325 16 0 0.0 14.5 0.20 0.23 0.23 89 1006.5
20260506153118 16 0 0.0 14.5 0.18 0.20 0.20 89 1006.5
20260506153020 16 360 0.0 14.5 0.18 0.20 0.20 89 1006.7
20260506153018 16 0 0.0 14.5 0.18 0.20 0.20 89 1006.6
20260506152917 16 0 0.0 14.5 0.18 0.20 0.20 89 1006.6
20260506152819 16 0 0.0 14.5 0.18 0.20 0.20 89 1006.6
20260506152755 16 0 0.0 14.5 0.20 0.20 0.20 88 1006.6
20260506152718 16 0 0.0 8.0 0.18 0.18 0.20 88 1006.6
20260506152615 16 0 0.0 8.0 0.18 0.18 0.18 88 1006.6
20260506152521 16 360 0.0 8.0 0.18 0.18 0.18 88 1006.6
20260506152515 16 0 0.0 8.0 0.18 0.18 0.18 88 1006.5
20260506152415 16 0 0.0 8.0 0.18 0.18 0.18 88 1006.5
20260506152315 16 0 0.0 8.0 0.18 0.18 0.18 88 1006.5
20260506152256 16 0 0.0 8.0 0.18 0.18 0.18 88 1006.6
20260506152214 16 0 0.0 8.0 0.18 0.18 0.18 88 1006.6
20260506152135 16 0 0.0 8.0 0.15 0.15 0.18 88 1006.7
20260506152022 16 0 0.0 8.0 0.15 0.15 0.15 87 1006.6
20260506152020 16 360 0.0 8.0 0.15 0.15 0.15 87 1006.7
20260506151811 16 0 0.0 12.9 0.15 0.15 0.15 88 1006.7
20260506151756 16 0 0.0 12.9 0.15 0.15 0.15 88 1006.7
20260506151740 16 0 0.0 12.9 0.13 0.13 0.13 87 1006.7
20260506151734 16 0 0.0 12.9 0.13 0.13 0.15 87 1006.7
20260506151621 16 0 0.0 12.9 0.13 0.13 0.13 87 1006.7
20260506151535 16 360 0.0 12.9 0.13 0.13 0.13 87 1006.7
20260506151412 16 0 0.0 12.9 0.13 0.13 0.13 87 1006.8
20260506151401 16 0 0.0 12.9 0.13 0.13 0.13 87 1006.8
20260506151210 16 0 0.0 12.9 0.13 0.13 0.13 87 1006.8
20260506151124 17 0 1.6 12.9 0.10 0.10 0.10 87 1006.7
20260506151119 16 0 0.0 12.9 0.10 0.10 0.10 87 1006.8
20260506151020 17 360 0.0 12.9 0.10 0.10 0.10 87 1006.7
20260506150908 17 0 1.6 12.9 0.10 0.10 0.10 87 1006.7
20260506150808 17 0 1.6 8.0 0.10 0.10 0.10 87 1006.6
20260506150752 17 0 1.6 12.9 0.10 0.10 0.10 87 1006.6
20260506150707 17 0 1.6 12.9 0.10 0.10 0.10 87 1006.6
20260506150607 17 0 1.6 12.9 0.10 0.10 0.10 87 1006.7
20260506150521 17 0 0.0 12.9 0.10 0.10 0.10 87 1006.7
20260506150515 17 0 0.0 12.9 0.10 0.10 0.10 87 1006.7
20260506150306 17 0 0.0 12.9 0.10 0.10 0.10 87 1006.6
20260506150249 17 0 0.0 12.9 0.10 0.10 0.10 87 1006.6
20260506150205 17 0 0.0 12.9 0.10 0.10 0.10 87 1006.6
20260506150120 17 0 0.0 12.9 0.10 0.10 0.10 87 1006.7
20260506150115 17 0 0.0 12.9 0.10 0.10 0.10 87 1006.6
20260506150020 17 360 0.0 12.9 0.10 0.10 0.10 87 1006.7
20260506145904 17 0 0.0 12.9 0.10 0.10 0.10 87 1006.6
20260506145822 17 0 0.0 1.6 0.08 0.08 0.08 87 1006.6
20260506145810 17 0 0.0 1.6 0.08 0.08 0.10 87 1006.6
20260506145601 17 0 0.0 1.6 0.08 0.08 0.08 86 1006.5
20260506145520 17 360 0.0 1.6 0.08 0.08 0.08 86 1006.5
20260506145501 17 0 0.0 1.6 0.08 0.08 0.08 86 1006.5
20260506145401 17 0 0.0 1.6 0.08 0.08 0.08 86 1006.5
20260506145249 17 0 0.0 1.6 0.08 0.08 0.08 86 1006.4
20260506145200 17 0 0.0 1.6 0.08 0.08 0.08 85 1006.4
20260506145113 17 0 0.0 1.6 0.08 0.08 0.08 85 1006.3
20260506145108 17 0 0.0 1.6 0.08 0.08 0.08 85 1006.4
20260506145020 17 360 0.0 1.6 0.08 0.08 0.08 85 1006.3
20260506144858 17 0 0.0 1.6 0.08 0.08 0.08 85 1006.3
20260506144747 17 0 0.0 0.0 0.08 0.08 0.08 85 1006.2
20260506144657 17 0 0.0 0.0 0.08 0.08 0.08 85 1006.3
20260506144556 17 0 0.0 0.0 0.08 0.08 0.08 85 1006.3
20260506144520 17 360 0.0 1.6 0.08 0.08 0.08 84 1006.3
20260506144455 17 0 0.0 1.6 0.08 0.08 0.08 84 1006.3
20260506144355 17 0 0.0 1.6 0.08 0.08 0.08 84 1006.3
20260506144255 17 0 0.0 3.2 0.05 0.05 0.05 84 1006.4
20260506144247 17 0 0.0 3.2 0.05 0.05 0.05 83 1006.4
20260506144154 17 0 0.0 3.2 0.05 0.05 0.05 83 1006.4
20260506144051 17 0 0.0 3.2 0.05 0.05 0.05 83 1006.4
20260506144020 17 360 0.0 3.2 0.05 0.05 0.05 83 1006.5
20260506143951 17 0 0.0 3.2 0.05 0.05 0.05 83 1006.5
20260506143850 17 0 0.0 19.3 0.05 0.05 0.05 83 1006.6
20260506143745 17 0 0.0 19.3 0.05 0.05 0.05 82 1006.6
20260506143649 17 0 0.0 19.3 0.05 0.05 0.05 82 1006.6
20260506143603 17 0 0.0 19.3 0.03 0.03 0.03 81 1006.7
20260506143558 17 0 0.0 19.3 0.05 0.05 0.05 81 1006.6
20260506143520 17 360 0.0 19.3 0.05 0.05 0.05 81 1006.7
20260506143347 17 0 0.0 19.3 0.03 0.03 0.03 81 1006.7
20260506143248 17 0 0.0 19.3 0.03 0.03 0.03 81 1006.7
20260506143147 17 0 0.0 19.3 0.03 0.03 0.03 80 1006.8
20260506143046 17 0 0.0 19.3 0.03 0.03 0.03 80 1006.7
20260506143020 17 360 0.0 19.3 0.03 0.03 0.03 80 1006.7
20260506142945 17 0 0.0 19.3 0.03 0.03 0.03 80 1006.7
20260506142843 18 0 0.0 8.0 0.03 0.03 0.03 80 1006.7
20260506142743 18 0 0.0 8.0 0.00 0.00 0.00 79 1006.7
20260506142641 18 0 0.0 8.0 0.00 0.00 0.00 79 1006.7
20260506142541 18 0 0.0 4.8 0.00 0.00 0.00 79 1006.7
20260506142520 18 360 0.0 4.8 0.00 0.00 0.00 79 1006.7
20260506142440 18 0 0.0 4.8 0.00 0.00 0.00 79 1006.7
20260506142340 18 0 0.0 6.4 0.00 0.00 0.00 79 1006.7
20260506142322 18 0 0.0 6.4 0.00 0.00 0.00 78 1006.7
20260506142310 18 0 0.0 6.4 0.00 0.00 0.00 78 1006.7
20260506142047 18 0 0.0 6.4 0.00 0.00 0.00 78 1006.8
20260506142020 18 360 0.0 6.4 0.00 0.00 0.00 78 1006.7
20260506141838 18 0 0.0 6.4 0.00 0.00 0.00 77 1006.7
20260506141738 18 0 0.0 6.4 0.00 0.00 0.00 77 1006.8
20260506141636 18 0 0.0 6.4 0.00 0.00 0.00 77 1006.7
20260506141550 18 360 0.0 6.4 0.00 0.00 0.00 76 1006.7
20260506141536 18 0 0.0 6.4 0.00 0.00 0.00 76 1006.8
20260506141435 18 0 0.0 6.4 0.00 0.00 0.00 77 1006.7
20260506141336 18 0 0.0 9.7 0.00 0.00 0.00 76 1006.6
20260506141233 18 0 0.0 17.7 0.00 0.00 0.00 76 1006.6
20260506141133 18 0 0.0 17.7 0.00 0.00 0.00 76 1006.6
20260506141033 18 0 0.0 17.7 0.00 0.00 0.00 75 1006.7
20260506141020 18 360 1.6 17.7 0.00 0.00 0.00 75 1006.7
20260506140945 18 0 0.0 17.7 0.00 0.00 0.00 75 1006.6
20260506140940 18 0 0.0 17.7 0.00 0.00 0.00 75 1006.7
20260506140730 18 0 0.0 17.7 0.00 0.00 0.00 74 1006.7
20260506140630 19 0 0.0 17.7 0.00 0.00 0.00 74 1006.6
20260506140600 19 0 0.0 11.3 0.00 0.00 0.00 73 1006.6
20260506140529 19 0 0.0 17.7 0.00 0.00 0.00 74 1006.6
20260506140520 19 360 0.0 17.7 0.00 0.00 0.00 74 1006.6
20260506140457 19 0 0.0 11.3 0.00 0.00 0.00 73 1006.6
20260506140451 19 0 1.6 17.7 0.00 0.00 0.00 73 1006.6
20260506140442 19 0 0.0 17.7 0.00 0.00 0.00 73 1006.5
20260506140126 19 0 0.0 11.3 0.00 0.00 0.00 73 1006.6
20260506140026 19 0 0.0 11.3 0.00 0.00 0.00 73 1006.5
20260506140020 19 360 0.0 11.3 0.00 0.00 0.00 73 1006.5
20260506135925 19 0 0.0 11.3 0.00 0.00 0.00 73 1006.5
20260506135824 19 0 0.0 11.3 0.00 0.00 0.00 72 1006.4
20260506135733 19 201 1.6 20.9 0.00 0.00 0.00 73 1006.2
20260506135728 19 0 0.0 11.3 0.00 0.00 0.00 72 1006.3
20260506135718 19 0 0.0 11.3 0.00 0.00 0.00 72 1006.3
20260506135605 19 0 1.6 20.9 0.00 0.00 0.00 72 1006.3
20260506135556 19 217 1.6 20.9 0.00 0.00 0.00 72 1006.3
20260506135520 19 360 0.0 20.9 0.00 0.00 0.00 72 1006.4
20260506135227 19 194 1.6 20.9 0.00 0.00 0.00 73 1006.2
20260506135059 19 212 1.6 20.9 0.00 0.00 0.00 73 1006.0
20260506135053 19 208 1.6 20.9 0.00 0.00 0.00 74 1006.1
20260506135020 19 209 0.0 20.9 0.00 0.00 0.00 74 1006.1
20260506134830 19 238 1.6 20.9 0.00 0.00 0.00 72 1006.0
20260506134822 19 188 1.6 20.9 0.00 0.00 0.00 72 1005.9
20260506134615 19 176 1.6 20.9 0.00 0.00 0.00 72 1005.8
20260506134520 19 227 9.7 16.1 0.00 0.00 0.00 72 1005.9
20260506134515 19 227 1.6 16.1 0.00 0.00 0.00 72 1005.8
20260506134414 19 194 1.6 16.1 0.00 0.00 0.00 74 1005.8
20260506134314 19 181 1.6 12.9 0.00 0.00 0.00 74 1005.7
20260506134239 19 244 1.6 12.9 0.00 0.00 0.00 74 1005.7
20260506134213 19 206 1.6 12.9 0.00 0.00 0.00 74 1005.6
20260506134112 19 202 1.6 12.9 0.00 0.00 0.00 74 1005.6
20260506134020 19 220 0.0 14.5 0.00 0.00 0.00 73 1005.7
20260506134012 19 220 1.6 14.5 0.00 0.00 0.00 73 1005.6
20260506133911 19 234 1.6 14.5 0.00 0.00 0.00 74 1005.7
20260506133738 19 205 1.6 14.5 0.00 0.00 0.00 74 1005.7
20260506133709 19 228 1.6 14.5 0.00 0.00 0.00 74 1005.9
20260506133623 18 178 1.6 19.3 0.00 0.00 0.00 74 1006.2
20260506133618 18 228 1.6 14.5 0.00 0.00 0.00 74 1006.1
20260506133550 18 178 4.8 17.7 0.00 0.00 0.00 74 1006.3
20260506133408 18 187 1.6 19.3 0.00 0.00 0.00 74 1006.2
20260506133307 18 198 1.6 19.3 0.00 0.00 0.00 74 1006.3
20260506133236 18 151 1.6 19.3 0.00 0.00 0.00 74 1006.3
20260506133207 18 232 1.6 19.3 0.00 0.00 0.00 74 1006.4
20260506133105 18 202 1.6 19.3 0.00 0.00 0.00 74 1006.4
20260506133035 18 244 0.0 17.7 0.00 0.00 0.00 74 1006.5
20260506133004 18 236 1.6 19.3 0.00 0.00 0.00 74 1006.4
20260506132903 18 170 0.0 19.3 0.00 0.00 0.00 74 1006.4
20260506132802 18 174 0.0 19.3 0.00 0.00 0.00 74 1006.5
20260506132735 18 250 0.0 19.3 0.00 0.00 0.00 74 1006.5
20260506132702 18 221 0.0 19.3 0.00 0.00 0.00 74 1006.4
20260506132602 18 190 0.0 19.3 0.00 0.00 0.00 74 1006.5
20260506132520 18 207 0.0 8.0 0.00 0.00 0.00 74 1006.5
20260506132502 18 184 0.0 8.0 0.00 0.00 0.00 74 1006.4
20260506132401 18 209 0.0 8.0 0.00 0.00 0.00 74 1006.5
20260506132328 18 227 0.0 8.0 0.00 0.00 0.00 74 1006.5
20260506132322 18 213 0.0 8.0 0.00 0.00 0.00 74 1006.5
20260506132209 18 225 0.0 8.0 0.00 0.00 0.00 74 1006.5
20260506132020 18 188 0.0 9.7 0.00 0.00 0.00 75 1006.5
20260506131959 18 188 1.6 9.7 0.00 0.00 0.00 75 1006.4
20260506131859 18 235 1.6 9.7 0.00 0.00 0.00 74 1006.3
20260506131735 18 186 1.6 24.1 0.00 0.00 0.00 74 1006.4
20260506131712 18 214 1.6 24.1 0.00 0.00 0.00 74 1006.5
20260506131706 18 209 1.6 24.1 0.00 0.00 0.00 74 1006.4
20260506131520 18 205 0.0 24.1 0.00 0.00 0.00 74 1006.5
20260506131456 18 207 1.6 24.1 0.00 0.00 0.00 74 1006.4
20260506131355 18 186 1.6 24.1 0.00 0.00 0.00 74 1006.5
20260506131255 18 242 1.6 24.1 0.00 0.00 0.00 74 1006.5
20260506131232 18 235 1.6 24.1 0.00 0.00 0.00 74 1006.5
20260506131154 18 187 1.6 24.1 0.00 0.00 0.00 74 1006.5
20260506131054 18 190 1.6 24.1 0.00 0.00 0.00 73 1006.4
20260506131020 18 207 0.0 24.1 0.00 0.00 0.00 73 1006.6
20260506130952 18 207 1.6 24.1 0.00 0.00 0.00 73 1006.5
20260506130852 18 197 1.6 24.1 0.00 0.00 0.00 74 1006.6
20260506130752 18 178 1.6 22.5 0.00 0.00 0.00 73 1006.6
20260506130732 18 194 1.6 22.5 0.00 0.00 0.00 73 1006.6
20260506130650 18 170 1.6 22.5 0.00 0.00 0.00 73 1006.6
20260506130548 19 228 1.6 22.5 0.00 0.00 0.00 73 1006.6
20260506130520 19 192 22.5 22.5 0.00 0.00 0.00 73 1006.7
20260506130448 19 204 1.6 11.3 0.00 0.00 0.00 73 1006.6
20260506130348 19 224 1.6 11.3 0.00 0.00 0.00 73 1006.7
20260506130319 19 188 1.6 11.3 0.00 0.00 0.00 72 1006.8
20260506130315 19 132 1.6 16.1 0.00 0.00 0.00 73 1006.8
20260506130310 19 210 1.6 11.3 0.00 0.00 0.00 72 1006.7
20260506130303 19 212 1.6 11.3 0.00 0.00 0.00 72 1006.7
20260506130020 19 226 9.7 16.1 0.00 0.00 0.00 72 1006.9
20260506125945 19 201 1.6 16.1 0.00 0.00 0.00 72 1006.8
20260506125846 19 188 1.6 16.1 0.00 0.00 0.00 72 1006.9
20260506125733 19 190 1.6 16.1 0.00 0.00 0.00 72 1006.8
20260506125720 19 219 1.6 17.7 0.00 0.00 0.00 72 1006.8
20260506125713 19 230 1.6 17.7 0.00 0.00 0.00 72 1006.8
20260506125520 19 215 0.0 17.7 0.00 0.00 0.00 72 1006.9
20260506125450 19 260 1.6 17.7 0.00 0.00 0.00 72 1006.8
20260506125241 19 203 1.6 17.7 0.00 0.00 0.00 72 1006.8
20260506125232 19 188 1.6 17.7 0.00 0.00 0.00 72 1006.8
20260506125140 19 176 1.6 17.7 0.00 0.00 0.00 72 1006.8
20260506125055 19 159 1.6 17.7 0.00 0.00 0.00 72 1006.8
20260506125051 19 211 1.6 17.7 0.00 0.00 0.00 72 1006.7
20260506125020 19 212 0.0 17.7 0.00 0.00 0.00 72 1006.9
20260506124841 19 236 1.6 17.7 0.00 0.00 0.00 72 1006.7
20260506124741 19 201 3.2 27.4 0.00 0.00 0.00 72 1006.7
20260506124733 19 238 3.2 27.4 0.00 0.00 0.00 72 1006.7
20260506124640 19 216 3.2 27.4 0.00 0.00 0.00 72 1006.6
20260506124540 19 238 3.2 27.4 0.00 0.00 0.00 73 1006.6
20260506124535 19 204 0.0 27.4 0.00 0.00 0.00 73 1006.7
20260506124439 19 299 3.2 27.4 0.00 0.00 0.00 72 1006.6
20260506124406 19 215 3.2 27.4 0.00 0.00 0.00 72 1006.6
20260506124252 19 159 3.2 27.4 0.00 0.00 0.00 73 1006.6
20260506124244 19 155 3.2 27.4 0.00 0.00 0.00 73 1006.6
20260506124036 18 209 3.2 27.4 0.00 0.00 0.00 73 1006.6
20260506124020 18 209 0.0 27.4 0.00 0.00 0.00 73 1006.6
20260506123957 18 221 1.6 27.4 0.00 0.00 0.00 73 1006.3
20260506123936 18 184 3.2 27.4 0.00 0.00 0.00 73 1006.5
20260506123849 18 183 1.6 27.4 0.00 0.00 0.00 73 1006.3
20260506123840 18 221 1.6 27.4 0.00 0.00 0.00 73 1006.3
20260506123634 18 189 1.6 27.4 0.00 0.00 0.00 74 1006.3
20260506123530 18 206 1.6 27.4 0.00 0.00 0.00 74 1006.3
20260506123520 18 206 0.0 27.4 0.00 0.00 0.00 73 1006.3
20260506123430 18 238 1.6 27.4 0.00 0.00 0.00 73 1006.2
20260506123332 18 203 0.0 27.4 0.00 0.00 0.00 74 1006.5
20260506123231 18 198 0.0 12.9 0.00 0.00 0.00 74 1006.5
20260506123131 18 192 0.0 12.9 0.00 0.00 0.00 74 1006.6
20260506123030 18 182 0.0 12.9 0.00 0.00 0.00 74 1006.6
20260506123021 18 192 0.0 11.3 0.00 0.00 0.00 74 1006.7
20260506122930 18 223 0.0 12.9 0.00 0.00 0.00 74 1006.6
20260506122829 18 161 0.0 12.9 0.00 0.00 0.00 74 1006.6
20260506122747 18 226 0.0 12.9 0.00 0.00 0.00 74 1006.6
20260506122737 18 195 0.0 12.9 0.00 0.00 0.00 74 1006.7
20260506122540 18 224 0.0 6.4 0.00 0.00 0.00 74 1006.7
20260506122535 18 252 0.0 11.3 0.00 0.00 0.00 74 1006.8
20260506122346 18 150 0.0 9.7 0.00 0.00 0.00 75 1006.6
20260506122342 18 151 0.0 9.7 0.00 0.00 0.00 75 1006.5
20260506122333 18 189 0.0 9.7 0.00 0.00 0.00 75 1006.6
20260506122139 18 188 0.0 9.7 0.00 0.00 0.00 74 1006.5
20260506122135 18 209 0.0 9.7 0.00 0.00 0.00 74 1006.5
20260506122035 18 213 0.0 11.3 0.00 0.00 0.00 74 1006.7
20260506121956 18 193 0.0 11.3 0.00 0.00 0.00 75 1006.6
20260506121925 18 214 0.0 11.3 0.00 0.00 0.00 75 1006.6
20260506121839 18 200 0.0 11.3 0.00 0.00 0.00 75 1006.6
20260506121724 18 194 0.0 11.3 0.00 0.00 0.00 75 1006.6
20260506121624 18 192 0.0 11.3 0.00 0.00 0.00 74 1006.6
20260506121524 18 188 0.0 14.5 0.00 0.00 0.00 74 1006.6
20260506121520 18 182 0.0 14.5 0.00 0.00 0.00 74 1006.7
20260506121503 18 187 0.0 14.5 0.00 0.00 0.00 75 1006.5
20260506121422 18 160 0.0 14.5 0.00 0.00 0.00 75 1006.6
20260506121402 18 233 0.0 14.5 0.00 0.00 0.00 75 1006.6
20260506121357 18 211 0.0 14.5 0.00 0.00 0.00 75 1006.5
20260506121352 18 166 0.0 14.5 0.00 0.00 0.00 75 1006.6
20260506121240 18 182 0.0 14.5 0.00 0.00 0.00 75 1006.5
20260506121020 18 212 4.8 14.5 0.00 0.00 0.00 75 1006.7
20260506120947 18 263 0.0 14.5 0.00 0.00 0.00 75 1006.4
20260506120917 18 213 0.0 14.5 0.00 0.00 0.00 75 1006.6
20260506120836 18 198 0.0 14.5 0.00 0.00 0.00 75 1006.5
20260506120717 18 193 0.0 14.5 0.00 0.00 0.00 75 1006.4
20260506120616 18 207 0.0 14.5 0.00 0.00 0.00 75 1006.5
20260506120520 18 177 0.0 9.7 0.00 0.00 0.00 75 1006.6
20260506120515 18 176 0.0 9.7 0.00 0.00 0.00 75 1006.5
20260506120415 18 243 0.0 9.7 0.00 0.00 0.00 75 1006.4
20260506120329 18 104 0.0 9.7 0.00 0.00 0.00 75 1006.5
20260506120320 18 192 0.0 9.7 0.00 0.00 0.00 75 1006.5
20260506120114 18 189 0.0 9.7 0.00 0.00 0.00 75 1006.6
20260506120020 18 165 0.0 9.7 0.00 0.00 0.00 75 1006.6
20260506120013 18 165 0.0 9.7 0.00 0.00 0.00 75 1006.5
20260506115911 18 171 0.0 9.7 0.00 0.00 0.00 75 1006.6
20260506115811 18 226 0.0 9.7 0.00 0.00 0.00 76 1006.5
20260506115726 18 182 0.0 9.7 0.00 0.00 0.00 76 1006.5
20260506115710 18 177 0.0 9.7 0.00 0.00 0.00 76 1006.5
20260506115610 18 171 0.0 9.7 0.00 0.00 0.00 76 1006.5
20260506115531 18 171 0.0 9.7 0.00 0.00 0.00 76 1006.5
20260506115520 18 171 0.0 9.7 0.00 0.00 0.00 76 1006.6
20260506115417 18 171 0.0 9.7 0.00 0.00 0.00 75 1006.5
20260506115227 18 176 0.0 12.9 0.00 0.00 0.00 76 1006.4
20260506115207 18 164 0.0 12.9 0.00 0.00 0.00 76 1006.4
20260506115120 18 163 0.0 12.9 0.00 0.00 0.00 76 1006.4
20260506115115 18 180 0.0 12.9 0.00 0.00 0.00 76 1006.4
20260506115035 18 163 0.0 12.9 0.00 0.00 0.00 76 1006.5
20260506114906 18 173 0.0 12.9 0.00 0.00 0.00 76 1006.5
20260506114805 18 204 0.0 12.9 0.00 0.00 0.00 76 1006.5
20260506114726 18 204 0.0 12.9 0.00 0.00 0.00 76 1006.5
20260506114705 18 180 0.0 12.9 0.00 0.00 0.00 76 1006.5
20260506114604 18 198 0.0 14.5 0.00 0.00 0.00 76 1006.5
20260506114521 18 203 0.0 14.5 0.00 0.00 0.00 76 1006.6
20260506114505 18 209 0.0 14.5 0.00 0.00 0.00 76 1006.5
20260506114400 18 138 0.0 14.5 0.00 0.00 0.00 76 1006.5
20260506114302 18 184 0.0 14.5 0.00 0.00 0.00 76 1006.5
20260506114226 18 146 0.0 14.5 0.00 0.00 0.00 76 1006.5
20260506114214 18 171 0.0 14.5 0.00 0.00 0.00 76 1006.5
20260506114210 18 177 0.0 14.5 0.00 0.00 0.00 76 1006.5
20260506114020 18 186 0.0 14.5 0.00 0.00 0.00 76 1006.5
20260506113957 18 195 0.0 14.5 0.00 0.00 0.00 76 1006.4
20260506113859 18 213 0.0 14.5 0.00 0.00 0.00 76 1006.5
20260506113817 18 186 0.0 16.1 0.00 0.00 0.00 76 1006.5
20260506113813 18 202 0.0 14.5 0.00 0.00 0.00 76 1006.5
20260506113805 18 187 0.0 14.5 0.00 0.00 0.00 76 1006.5
20260506113557 18 198 0.0 16.1 0.00 0.00 0.00 76 1006.5
20260506113550 18 197 0.0 16.1 0.00 0.00 0.00 76 1006.7
20260506113544 18 192 0.0 16.1 0.00 0.00 0.00 76 1006.5
20260506113540 18 182 0.0 16.1 0.00 0.00 0.00 76 1006.5
20260506113535 18 199 0.0 16.1 0.00 0.00 0.00 76 1006.6
20260506113415 18 127 0.0 16.1 0.00 0.00 0.00 76 1006.5
20260506113301 18 180 0.0 16.1 0.00 0.00 0.00 76 1006.5
20260506113144 18 207 1.6 16.1 0.00 0.00 0.00 76 1006.4
20260506113139 18 144 0.0 16.1 0.00 0.00 0.00 76 1006.4
20260506113025 18 143 0.0 16.1 0.00 0.00 0.00 76 1006.4
20260506113020 18 144 0.0 16.1 0.00 0.00 0.00 76 1006.5
20260506112759 18 169 1.6 16.1 0.00 0.00 0.00 76 1006.4
20260506112550 18 198 0.0 14.5 0.00 0.00 0.00 76 1006.3
20260506112520 18 200 0.0 14.5 0.00 0.00 0.00 76 1006.4
20260506112504 18 178 1.6 14.5 0.00 0.00 0.00 76 1006.3
20260506112500 18 200 0.0 14.5 0.00 0.00 0.00 76 1006.3
20260506112250 18 193 1.6 14.5 0.00 0.00 0.00 76 1006.4
20260506112224 18 165 1.6 14.5 0.00 0.00 0.00 76 1006.4
20260506112147 18 168 1.6 14.5 0.00 0.00 0.00 76 1006.4
20260506112046 18 148 1.6 14.5 0.00 0.00 0.00 76 1006.5
20260506112020 18 180 4.8 14.5 0.00 0.00 0.00 76 1006.5
20260506111946 18 186 1.6 14.5 0.00 0.00 0.00 76 1006.4
20260506111845 18 197 0.0 14.5 0.00 0.00 0.00 76 1006.4
20260506111745 18 199 0.0 11.3 0.00 0.00 0.00 76 1006.5
20260506111723 18 202 0.0 11.3 0.00 0.00 0.00 76 1006.5
20260506111644 18 206 0.0 11.3 0.00 0.00 0.00 76 1006.5
20260506111544 18 174 0.0 11.3 0.00 0.00 0.00 76 1006.5
20260506111520 18 183 4.8 11.3 0.00 0.00 0.00 76 1006.6
20260506111512 18 248 0.0 16.1 0.00 0.00 0.00 76 1006.5
20260506111507 18 151 0.0 16.1 0.00 0.00 0.00 76 1006.5
20260506111503 18 215 0.0 11.3 0.00 0.00 0.00 76 1006.5
20260506111223 18 188 0.0 16.1 0.00 0.00 0.00 76 1006.5
20260506111143 18 174 0.0 16.1 0.00 0.00 0.00 76 1006.5
20260506111100 18 167 0.0 16.1 0.00 0.00 0.00 76 1006.4
20260506111020 18 140 0.0 16.1 0.00 0.00 0.00 76 1006.5
20260506110942 18 130 0.0 16.1 0.00 0.00 0.00 76 1006.4
20260506110841 18 251 1.6 16.1 0.00 0.00 0.00 76 1006.5
20260506110830 18 157 1.6 16.1 0.00 0.00 0.00 76 1006.5
20260506110652 18 176 1.6 16.1 0.00 0.00 0.00 76 1006.4
20260506110648 18 225 1.6 16.1 0.00 0.00 0.00 76 1006.4
20260506110520 18 196 0.0 16.1 0.00 0.00 0.00 76 1006.5
20260506110438 18 132 1.6 16.1 0.00 0.00 0.00 76 1006.4
20260506110337 18 186 1.6 16.1 0.00 0.00 0.00 76 1006.3
20260506110254 18 192 1.6 20.9 0.00 0.00 0.00 76 1006.3
20260506110250 18 218 1.6 20.9 0.00 0.00 0.00 76 1006.3
20260506110242 18 191 1.6 20.9 0.00 0.00 0.00 76 1006.3
20260506110036 18 190 1.6 20.9 0.00 0.00 0.00 76 1006.3
20260506110020 18 169 0.0 20.9 0.00 0.00 0.00 76 1006.3
20260506105947 18 174 1.6 24.1 0.00 0.00 0.00 76 1006.2
20260506105942 18 170 1.6 20.9 0.00 0.00 0.00 76 1006.2
20260506105718 18 182 1.6 24.1 0.00 0.00 0.00 76 1006.2
20260506105644 18 175 3.2 24.1 0.00 0.00 0.00 77 1006.3
20260506105640 18 200 1.6 24.1 0.00 0.00 0.00 76 1006.2
20260506105520 18 176 14.5 22.5 0.00 0.00 0.00 77 1006.4
20260506105429 18 242 1.6 24.1 0.00 0.00 0.00 76 1006.3
20260506105327 18 175 1.6 24.1 0.00 0.00 0.00 76 1006.3
20260506105228 17 192 1.6 24.1 0.00 0.00 0.00 76 1006.4
20260506105221 17 190 1.6 24.1 0.00 0.00 0.00 76 1006.4
20260506105126 17 173 1.6 24.1 0.00 0.00 0.00 76 1006.4
20260506105035 17 171 1.6 22.5 0.00 0.00 0.00 76 1006.5
20260506105024 17 171 1.6 24.1 0.00 0.00 0.00 76 1006.4
20260506104923 17 152 1.6 24.1 0.00 0.00 0.00 76 1006.4
20260506104822 17 242 1.6 22.5 0.00 0.00 0.00 77 1006.4
20260506104724 17 192 1.6 12.9 0.00 0.00 0.00 77 1006.3
20260506104718 17 181 1.6 12.9 0.00 0.00 0.00 77 1006.3
20260506104621 17 181 1.6 14.5 0.00 0.00 0.00 76 1006.3
20260506104520 17 146 0.0 14.5 0.00 0.00 0.00 77 1006.4
20260506104433 17 161 1.6 19.3 0.00 0.00 0.00 77 1006.4
20260506104429 17 207 1.6 19.3 0.00 0.00 0.00 77 1006.4
20260506104424 17 159 1.6 19.3 0.00 0.00 0.00 77 1006.3
20260506104420 17 138 0.0 14.5 0.00 0.00 0.00 77 1006.3
20260506104411 17 189 0.0 14.5 0.00 0.00 0.00 77 1006.3
20260506104258 17 161 1.6 19.3 0.00 0.00 0.00 77 1006.4
20260506104143 17 162 1.6 19.3 0.00 0.00 0.00 77 1006.4
20260506104050 17 167 0.0 14.5 0.00 0.00 0.00 77 1006.4
20260506103719 17 148 1.6 19.3 0.00 0.00 0.00 76 1006.3
20260506103714 17 146 1.6 19.3 0.00 0.00 0.00 76 1006.3
20260506103615 18 161 1.6 19.3 0.00 0.00 0.00 76 1006.3
20260506103600 18 153 1.6 19.3 0.00 0.00 0.00 76 1006.3
20260506103535 18 154 0.0 16.1 0.00 0.00 0.00 76 1006.4
20260506103414 18 199 1.6 19.3 0.00 0.00 0.00 76 1006.3
20260506103342 18 159 0.0 17.7 0.00 0.00 0.00 76 1006.3
20260506103336 18 175 1.6 19.3 0.00 0.00 0.00 76 1006.4
20260506103221 18 164 1.6 17.7 0.00 0.00 0.00 76 1006.4
20260506103021 18 84 0.0 16.1 0.00 0.00 0.00 76 1006.5
20260506103013 18 84 0.0 17.7 0.00 0.00 0.00 76 1006.4
20260506102911 18 189 0.0 17.7 0.00 0.00 0.00 76 1006.4
20260506102811 18 134 1.6 17.7 0.00 0.00 0.00 76 1006.3
20260506102755 18 190 1.6 17.7 0.00 0.00 0.00 76 1006.3
20260506102751 18 186 1.6 17.7 0.00 0.00 0.00 76 1006.3
20260506102746 18 256 1.6 17.7 0.00 0.00 0.00 76 1006.3
20260506102740 18 256 1.6 17.7 0.00 0.00 0.00 76 1006.4
20260506102520 18 167 0.0 17.7 0.00 0.00 0.00 76 1006.4
20260506102517 18 162 1.6 17.7 0.00 0.00 0.00 76 1006.3
20260506102322 18 188 0.0 17.7 0.00 0.00 0.00 76 1006.2
20260506102206 18 156 0.0 17.7 0.00 0.00 0.00 76 1006.2
20260506102127 18 165 0.0 17.7 0.00 0.00 0.00 76 1006.2
20260506102020 18 164 0.0 17.7 0.00 0.00 0.00 76 1006.3
20260506102014 18 163 1.6 17.7 0.00 0.00 0.00 76 1006.2
20260506101818 18 175 1.6 24.1 0.00 0.00 0.00 76 1006.3
20260506101809 18 192 1.6 24.1 0.00 0.00 0.00 76 1006.3
20260506101603 18 172 1.6 24.1 0.00 0.00 0.00 76 1006.3
20260506101520 18 160 0.0 24.1 0.00 0.00 0.00 76 1006.4
20260506101503 18 184 1.6 24.1 0.00 0.00 0.00 76 1006.3
20260506101403 18 150 1.6 24.1 0.00 0.00 0.00 76 1006.3
20260506101302 18 152 1.6 24.1 0.00 0.00 0.00 76 1006.3
20260506101211 18 189 1.6 24.1 0.00 0.00 0.00 76 1006.3
20260506101201 18 228 1.6 24.1 0.00 0.00 0.00 76 1006.3
20260506101101 18 198 1.6 24.1 0.00 0.00 0.00 76 1006.2
20260506101020 18 162 0.0 24.1 0.00 0.00 0.00 76 1006.3
20260506101000 18 161 1.6 24.1 0.00 0.00 0.00 76 1006.2
20260506100858 18 159 1.6 24.1 0.00 0.00 0.00 76 1006.2
20260506100759 18 158 1.6 19.3 0.00 0.00 0.00 76 1006.2
20260506100719 18 184 1.6 19.3 0.00 0.00 0.00 76 1006.3
20260506100714 18 155 1.6 19.3 0.00 0.00 0.00 76 1006.2
20260506100709 18 188 1.6 19.3 0.00 0.00 0.00 76 1006.2
20260506100659 18 168 1.6 19.3 0.00 0.00 0.00 76 1006.2
20260506100535 18 169 1.6 19.3 0.00 0.00 0.00 76 1006.4
20260506100357 18 0 1.6 14.5 0.00 0.00 0.00 76 1006.3
20260506100320 18 209 1.6 14.5 0.00 0.00 0.00 76 1006.3
20260506100156 18 173 1.6 16.1 0.00 0.00 0.00 76 1006.3
20260506100056 18 148 1.6 16.1 0.00 0.00 0.00 76 1006.3
20260506100020 18 156 0.0 14.5 0.00 0.00 0.00 76 1006.4
20260506095954 18 185 1.6 16.1 0.00 0.00 0.00 76 1006.3
20260506095853 18 175 1.6 16.1 0.00 0.00 0.00 76 1006.3
20260506095752 18 209 1.6 16.1 0.00 0.00 0.00 76 1006.3
20260506095712 18 164 1.6 16.1 0.00 0.00 0.00 76 1006.3
20260506095651 18 167 1.6 16.1 0.00 0.00 0.00 76 1006.3
20260506095551 18 184 1.6 22.5 0.00 0.00 0.00 76 1006.3
20260506095520 18 167 0.0 22.5 0.00 0.00 0.00 76 1006.4
20260506095450 18 179 1.6 22.5 0.00 0.00 0.00 76 1006.3
20260506095349 18 144 1.6 22.5 0.00 0.00 0.00 76 1006.3
20260506095249 18 203 1.6 22.5 0.00 0.00 0.00 76 1006.3
20260506095212 18 139 1.6 22.5 0.00 0.00 0.00 76 1006.3
20260506095148 18 180 1.6 22.5 0.00 0.00 0.00 76 1006.3
20260506095048 18 186 1.6 22.5 0.00 0.00 0.00 76 1006.3
20260506095020 18 182 0.0 22.5 0.00 0.00 0.00 76 1006.5
20260506094947 18 217 1.6 22.5 0.00 0.00 0.00 76 1006.4
20260506094847 18 171 1.6 22.5 0.00 0.00 0.00 76 1006.3
20260506094745 18 150 1.6 22.5 0.00 0.00 0.00 75 1006.3
20260506094711 18 203 1.6 22.5 0.00 0.00 0.00 75 1006.3
20260506094645 18 167 1.6 22.5 0.00 0.00 0.00 75 1006.3
20260506094543 18 176 0.0 12.9 0.00 0.00 0.00 75 1006.4
20260506094520 18 173 0.0 8.0 0.00 0.00 0.00 75 1006.4
20260506094443 18 173 0.0 12.9 0.00 0.00 0.00 75 1006.3
20260506094342 18 121 0.0 12.9 0.00 0.00 0.00 75 1006.3
20260506094242 18 199 0.0 12.9 0.00 0.00 0.00 75 1006.3
20260506094209 18 209 0.0 12.9 0.00 0.00 0.00 75 1006.2
20260506094140 18 212 0.0 12.9 0.00 0.00 0.00 75 1006.2
20260506094039 18 188 0.0 12.9 0.00 0.00 0.00 75 1006.2
20260506094021 18 165 0.0 12.9 0.00 0.00 0.00 75 1006.2
20260506094015 18 174 0.0 12.9 0.00 0.00 0.00 75 1006.2
20260506093902 18 182 0.0 12.9 0.00 0.00 0.00 75 1006.3
20260506093744 18 173 0.0 12.9 0.00 0.00 0.00 75 1006.2
20260506093537 18 203 0.0 11.3 0.00 0.00 0.00 75 1006.2
20260506093520 18 198 0.0 11.3 0.00 0.00 0.00 75 1006.3
20260506093437 18 197 0.0 11.3 0.00 0.00 0.00 75 1006.2
20260506093336 18 195 0.0 11.3 0.00 0.00 0.00 75 1006.1
20260506093234 18 146 0.0 11.3 0.00 0.00 0.00 75 1006.2
20260506093208 18 0 0.0 11.3 0.00 0.00 0.00 75 1006.2
20260506093133 18 189 0.0 11.3 0.00 0.00 0.00 75 1006.2
20260506093033 18 176 1.6 11.3 0.00 0.00 0.00 75 1006.2
20260506093021 18 178 0.0 11.3 0.00 0.00 0.00 75 1006.3
20260506092932 18 184 1.6 11.3 0.00 0.00 0.00 75 1006.2
20260506092831 18 165 1.6 17.7 0.00 0.00 0.00 75 1006.1
20260506092730 18 147 1.6 17.7 0.00 0.00 0.00 75 1006.2
20260506092707 18 181 1.6 17.7 0.00 0.00 0.00 75 1006.2
20260506092629 18 199 1.6 17.7 0.00 0.00 0.00 75 1006.2
20260506092543 18 182 1.6 17.7 0.00 0.00 0.00 75 1006.2
20260506092539 18 201 1.6 17.7 0.00 0.00 0.00 75 1006.2
20260506092520 18 203 0.0 17.7 0.00 0.00 0.00 75 1006.3
20260506092329 18 185 1.6 17.7 0.00 0.00 0.00 75 1006.2
20260506092256 18 192 1.6 17.7 0.00 0.00 0.00 74 1006.2
20260506092248 18 194 1.6 17.7 0.00 0.00 0.00 74 1006.2
20260506092138 18 240 1.6 17.7 0.00 0.00 0.00 74 1006.2
20260506092020 18 152 0.0 17.7 0.00 0.00 0.00 74 1006.2
20260506091928 18 174 1.6 17.7 0.00 0.00 0.00 74 1006.1
20260506091828 18 148 1.6 14.5 0.00 0.00 0.00 74 1006.2
20260506091726 18 193 1.6 14.5 0.00 0.00 0.00 74 1006.2
20260506091706 18 177 1.6 14.5 0.00 0.00 0.00 74 1006.2
20260506091626 18 154 1.6 14.5 0.00 0.00 0.00 74 1006.2
20260506091525 18 185 1.6 14.5 0.00 0.00 0.00 74 1006.2
20260506091520 18 161 0.0 14.5 0.00 0.00 0.00 74 1006.3
20260506091438 18 163 0.0 8.0 0.00 0.00 0.00 74 1006.2
20260506091434 18 177 0.0 14.5 0.00 0.00 0.00 74 1006.2
20260506091224 18 167 0.0 8.0 0.00 0.00 0.00 74 1006.2
20260506091207 18 155 0.0 4.8 0.00 0.00 0.00 74 1006.3
20260506091136 18 189 0.0 8.0 0.00 0.00 0.00 74 1006.3
20260506091132 18 145 0.0 1.6 0.00 0.00 0.00 74 1006.3
20260506091020 18 205 0.0 8.0 0.00 0.00 0.00 74 1006.3
20260506090922 18 140 0.0 8.0 0.00 0.00 0.00 74 1006.2
20260506090821 18 169 0.0 8.0 0.00 0.00 0.00 74 1006.3
20260506090720 18 128 0.0 12.9 0.00 0.00 0.00 74 1006.3
20260506090708 18 0 0.0 12.9 0.00 0.00 0.00 74 1006.3
20260506090620 18 180 0.0 12.9 0.00 0.00 0.00 74 1006.3
20260506090531 18 153 0.0 12.9 0.00 0.00 0.00 74 1006.3
20260506090527 18 159 0.0 12.9 0.00 0.00 0.00 74 1006.2
20260506090520 18 159 0.0 12.9 0.00 0.00 0.00 74 1006.4
20260506090317 18 189 0.0 12.9 0.00 0.00 0.00 74 1006.2
20260506090241 18 169 0.0 12.9 0.00 0.00 0.00 74 1006.2
20260506090235 18 169 0.0 12.9 0.00 0.00 0.00 74 1006.3
20260506090123 18 198 0.0 12.9 0.00 0.00 0.00 74 1006.3
20260506090020 18 182 1.6 12.9 0.00 0.00 0.00 74 1006.3
20260506085911 18 131 0.0 12.9 0.00 0.00 0.00 74 1006.3
20260506085811 18 190 0.0 12.9 0.00 0.00 0.00 74 1006.4
20260506085713 18 186 0.0 9.7 0.00 0.00 0.00 74 1006.3
20260506085707 18 189 0.0 9.7 0.00 0.00 0.00 74 1006.3
20260506085611 18 173 0.0 25.7 0.00 0.00 0.00 74 1006.3
20260506085520 18 151 0.0 12.9 0.00 0.00 0.00 74 1006.5
20260506085509 18 132 0.0 25.7 0.00 0.00 0.00 74 1006.4
20260506085409 18 177 1.6 25.7 0.00 0.00 0.00 73 1006.3
20260506085327 18 195 1.6 25.7 0.00 0.00 0.00 73 1006.3
20260506085321 18 177 1.6 25.7 0.00 0.00 0.00 73 1006.3
20260506085205 18 195 1.6 25.7 0.00 0.00 0.00 73 1006.3
20260506085107 18 138 1.6 25.7 0.00 0.00 0.00 73 1006.3
20260506085020 18 180 0.0 24.1 0.00 0.00 0.00 73 1006.4
20260506085007 18 170 1.6 25.7 0.00 0.00 0.00 73 1006.3
20260506084930 18 132 3.2 25.7 0.00 0.00 0.00 73 1006.3
20260506084907 18 155 1.6 25.7 0.00 0.00 0.00 73 1006.3
20260506084820 18 161 1.6 25.7 0.00 0.00 0.00 73 1006.3
20260506084705 18 144 3.2 25.7 0.00 0.00 0.00 73 1006.3
20260506084627 18 224 3.2 25.7 0.00 0.00 0.00 73 1006.2
20260506084535 18 165 0.0 25.7 0.00 0.00 0.00 73 1006.4
20260506084514 18 165 3.2 25.7 0.00 0.00 0.00 73 1006.3
20260506084304 18 148 3.2 25.7 0.00 0.00 0.00 73 1006.3
20260506084209 18 180 3.2 32.2 0.00 0.00 0.00 73 1006.2
20260506084204 18 168 3.2 32.2 0.00 0.00 0.00 73 1006.2
20260506084102 18 185 1.6 32.2 0.00 0.00 0.00 73 1006.3
20260506084035 18 196 0.0 32.2 0.00 0.00 0.00 73 1006.4
20260506084003 18 186 1.6 32.2 0.00 0.00 0.00 73 1006.3
20260506083902 18 175 3.2 32.2 0.00 0.00 0.00 73 1006.3
20260506083801 18 219 3.2 32.2 0.00 0.00 0.00 73 1006.3
20260506083733 18 182 1.6 32.2 0.00 0.00 0.00 73 1006.3
20260506083729 18 184 3.2 32.2 0.00 0.00 0.00 73 1006.3
20260506083724 18 191 1.6 32.2 0.00 0.00 0.00 73 1006.4
20260506083718 18 223 1.6 32.2 0.00 0.00 0.00 73 1006.4
20260506083520 18 192 0.0 32.2 0.00 0.00 0.00 73 1006.4
20260506083437 18 173 1.6 19.3 0.00 0.00 0.00 73 1006.4
20260506083359 18 192 3.2 32.2 0.00 0.00 0.00 73 1006.4
20260506083315 18 188 1.6 32.2 0.00 0.00 0.00 73 1006.4
20260506083158 18 173 1.6 19.3 0.00 0.00 0.00 73 1006.4
20260506083058 18 177 1.6 19.3 0.00 0.00 0.00 73 1006.3
20260506083020 18 192 0.0 17.7 0.00 0.00 0.00 73 1006.4
20260506082957 18 188 1.6 19.3 0.00 0.00 0.00 73 1006.3
20260506082856 18 172 1.6 19.3 0.00 0.00 0.00 73 1006.3
20260506082755 18 169 1.6 19.3 0.00 0.00 0.00 73 1006.3
20260506082714 18 136 1.6 19.3 0.00 0.00 0.00 73 1006.3
20260506082710 18 186 1.6 19.3 0.00 0.00 0.00 73 1006.3
20260506082703 18 188 1.6 19.3 0.00 0.00 0.00 73 1006.3
20260506082520 18 159 0.0 17.7 0.00 0.00 0.00 73 1006.4
20260506082454 18 170 1.6 19.3 0.00 0.00 0.00 73 1006.3
20260506082352 18 180 1.6 14.5 0.00 0.00 0.00 73 1006.3
20260506082252 18 158 0.0 14.5 0.00 0.00 0.00 73 1006.3
20260506082204 18 180 0.0 14.5 0.00 0.00 0.00 73 1006.2
20260506082152 18 188 0.0 11.3 0.00 0.00 0.00 73 1006.2
20260506082118 18 152 0.0 12.9 0.00 0.00 0.00 73 1006.3
20260506082020 18 148 9.7 12.9 0.00 0.00 0.00 73 1006.3
20260506082006 18 175 1.6 16.1 0.00 0.00 0.00 73 1006.3
20260506082000 18 163 1.6 12.9 0.00 0.00 0.00 73 1006.2
20260506081811 18 170 1.6 16.1 0.00 0.00 0.00 73 1006.3
20260506081649 18 170 1.6 16.1 0.00 0.00 0.00 73 1006.3
20260506081615 18 196 1.6 16.1 0.00 0.00 0.00 73 1006.3
20260506081611 18 184 1.6 16.1 0.00 0.00 0.00 73 1006.3
20260506081606 18 191 1.6 16.1 0.00 0.00 0.00 73 1006.3
20260506081520 18 153 0.0 16.1 0.00 0.00 0.00 73 1006.4
20260506081307 18 128 1.6 16.1 0.00 0.00 0.00 73 1006.4
20260506081301 18 196 1.6 16.1 0.00 0.00 0.00 73 1006.3
20260506081253 18 178 1.6 16.1 0.00 0.00 0.00 73 1006.4
20260506081045 18 172 1.6 16.1 0.00 0.00 0.00 73 1006.4
20260506081035 18 169 0.0 16.1 0.00 0.00 0.00 73 1006.5
20260506080945 18 176 0.0 16.1 0.00 0.00 0.00 73 1006.4
20260506080844 18 167 0.0 8.0 0.00 0.00 0.00 73 1006.4
20260506080803 18 155 1.6 16.1 0.00 0.00 0.00 73 1006.4
20260506080757 18 195 0.0 8.0 0.00 0.00 0.00 73 1006.4
20260506080749 18 158 1.6 14.5 0.00 0.00 0.00 73 1006.4
20260506080542 18 173 1.6 16.1 0.00 0.00 0.00 73 1006.4
20260506080520 18 175 0.0 16.1 0.00 0.00 0.00 73 1006.5
20260506080442 18 175 1.6 16.1 0.00 0.00 0.00 73 1006.4
20260506080424 18 179 1.6 22.5 0.00 0.00 0.00 73 1006.5
20260506080342 18 170 1.6 22.5 0.00 0.00 0.00 73 1006.4
20260506080310 18 196 1.6 22.5 0.00 0.00 0.00 73 1006.4
20260506080154 18 176 1.6 22.5 0.00 0.00 0.00 72 1006.4
20260506080149 18 155 1.6 22.5 0.00 0.00 0.00 73 1006.5
20260506073525 19 192 1.6 17.7 0.00 0.00 0.00 71 1006.6
20260506073521 19 360 0.0 17.7 0.00 0.00 0.00 71 1006.7
20260506073423 19 191 1.6 17.7 0.00 0.00 0.00 71 1006.6
20260506073323 19 138 1.6 17.7 0.00 0.00 0.00 71 1006.6
20260506073223 19 175 1.6 17.7 0.00 0.00 0.00 71 1006.6
20260506073200 19 177 1.6 17.7 0.00 0.00 0.00 71 1006.6
20260506073122 19 193 1.6 17.7 0.00 0.00 0.00 71 1006.6
20260506073049 19 154 0.0 17.7 0.00 0.00 0.00 71 1006.7
20260506073021 19 154 1.6 17.7 0.00 0.00 0.00 71 1006.6
20260506072943 19 138 1.6 17.7 0.00 0.00 0.00 71 1006.6
20260506072830 19 197 1.6 17.7 0.00 0.00 0.00 71 1006.6
20260506072657 19 171 1.6 17.7 0.00 0.00 0.00 71 1006.6
20260506072619 19 196 1.6 17.7 0.00 0.00 0.00 71 1006.6
20260506072604 19 169 0.0 16.1 0.00 0.00 0.00 71 1006.7
20260506072518 19 155 1.6 16.1 0.00 0.00 0.00 71 1006.6
20260506072417 19 190 1.6 16.1 0.00 0.00 0.00 71 1006.6
20260506072317 19 194 1.6 16.1 0.00 0.00 0.00 71 1006.6
20260506072216 19 181 1.6 16.1 0.00 0.00 0.00 71 1006.6
20260506072157 19 192 1.6 16.1 0.00 0.00 0.00 70 1006.6
20260506072115 19 192 1.6 16.1 0.00 0.00 0.00 70 1006.6
20260506072019 19 184 0.0 16.1 0.00 0.00 0.00 70 1006.7
20260506072014 19 182 1.6 16.1 0.00 0.00 0.00 70 1006.6
20260506071913 19 0 1.6 16.1 0.00 0.00 0.00 70 1006.6
20260506071813 19 157 1.6 16.1 0.00 0.00 0.00 70 1006.6
20260506071733 19 206 1.6 16.1 0.00 0.00 0.00 70 1006.7
20260506071727 19 155 1.6 16.1 0.00 0.00 0.00 70 1006.6
20260506071720 19 171 1.6 16.1 0.00 0.00 0.00 70 1006.6
20260506071520 19 180 0.0 16.1 0.00 0.00 0.00 70 1006.7
20260506071511 19 180 1.6 16.1 0.00 0.00 0.00 70 1006.6
20260506071411 19 0 1.6 16.1 0.00 0.00 0.00 70 1006.6
20260506071310 19 172 1.6 16.1 0.00 0.00 0.00 70 1006.6
20260506071209 19 153 1.6 16.1 0.00 0.00 0.00 70 1006.7
20260506071154 19 175 1.6 16.1 0.00 0.00 0.00 70 1006.7
20260506071110 19 176 1.6 16.1 0.00 0.00 0.00 70 1006.6
20260506071023 19 187 0.0 16.1 0.00 0.00 0.00 70 1006.6
20260506071019 19 182 0.0 16.1 0.00 0.00 0.00 69 1006.8
20260506070807 19 182 0.0 12.9 0.00 0.00 0.00 69 1006.7
20260506070707 19 162 0.0 12.9 0.00 0.00 0.00 69 1006.6
20260506070654 19 161 0.0 12.9 0.00 0.00 0.00 69 1006.6
20260506070606 19 214 0.0 12.9 0.00 0.00 0.00 69 1006.6
20260506070520 19 165 0.0 12.9 0.00 0.00 0.00 69 1006.7
20260506070506 19 167 0.0 12.9 0.00 0.00 0.00 69 1006.6
20260506070406 19 199 1.6 16.1 0.00 0.00 0.00 69 1006.6
20260506070304 19 0 1.6 16.1 0.00 0.00 0.00 69 1006.7
20260506070204 19 232 1.6 16.1 0.00 0.00 0.00 69 1006.7
20260506070154 19 180 1.6 16.1 0.00 0.00 0.00 69 1006.7
20260506070104 19 159 1.6 16.1 0.00 0.00 0.00 69 1006.7
20260506062436 20 200 0.0 14.5 0.00 0.00 0.00 67 1007.1
20260506062335 20 193 0.0 12.9 0.00 0.00 0.00 67 1007.1
20260506062235 20 190 0.0 12.9 0.00 0.00 0.00 67 1007.1
20260506062154 20 200 0.0 12.9 0.00 0.00 0.00 67 1007.1
20260506062148 20 185 0.0 12.9 0.00 0.00 0.00 67 1007.1
20260506062143 20 206 0.0 12.9 0.00 0.00 0.00 67 1007.1
20260506062019 20 180 0.0 12.9 0.00 0.00 0.00 67 1007.3
20260506061933 20 187 0.0 12.9 0.00 0.00 0.00 67 1007.1
20260506061832 20 234 0.0 12.9 0.00 0.00 0.00 67 1007.1
20260506061736 20 182 0.0 6.4 0.00 0.00 0.00 67 1007.1
20260506061731 20 144 0.0 12.9 0.00 0.00 0.00 67 1007.1
20260506061724 20 188 0.0 6.4 0.00 0.00 0.00 67 1007.1
20260506061720 20 175 0.0 6.4 0.00 0.00 0.00 67 1007.0
20260506061716 20 184 0.0 6.4 0.00 0.00 0.00 67 1007.1
20260506061711 20 211 0.0 12.9 0.00 0.00 0.00 67 1007.1
20260506061704 20 164 0.0 12.9 0.00 0.00 0.00 67 1007.1
20260506061520 20 190 0.0 6.4 0.00 0.00 0.00 67 1007.3
20260506061148 20 197 0.0 6.4 0.00 0.00 0.00 67 1007.1
20260506061126 20 184 0.0 6.4 0.00 0.00 0.00 67 1007.1
20260506061026 20 150 0.0 6.4 0.00 0.00 0.00 67 1007.1
20260506061020 20 136 0.0 9.7 0.00 0.00 0.00 67 1007.3
20260506060925 20 206 0.0 9.7 0.00 0.00 0.00 67 1007.1
20260506060825 20 190 0.0 14.5 0.00 0.00 0.00 67 1007.1
20260506060743 20 186 0.0 22.5 0.00 0.00 0.00 67 1007.0
20260506060737 20 174 0.0 22.5 0.00 0.00 0.00 67 1007.0
20260506060729 20 194 0.0 22.5 0.00 0.00 0.00 67 1007.0
20260506060523 20 144 0.0 22.5 0.00 0.00 0.00 67 1007.0
20260506060520 20 170 0.0 22.5 0.00 0.00 0.00 67 1007.4
20260506060423 20 166 0.0 22.5 0.00 0.00 0.00 67 1007.2
20260506060322 20 150 0.0 22.5 0.00 0.00 0.00 67 1007.1
20260506060241 20 182 0.0 22.5 0.00 0.00 0.00 67 1007.1
20260506060236 20 193 0.0 22.5 0.00 0.00 0.00 67 1007.1
20260506060228 20 199 0.0 22.5 0.00 0.00 0.00 67 1007.1
20260506051355 20 150 1.6 17.7 0.00 0.00 0.00 64 1007.5
20260506051255 20 134 1.6 17.7 0.00 0.00 0.00 64 1007.4
20260506051154 20 175 1.6 17.7 0.00 0.00 0.00 64 1007.5
20260506051140 20 179 1.6 17.7 0.00 0.00 0.00 64 1007.5
20260506051054 20 156 1.6 17.7 0.00 0.00 0.00 64 1007.5
20260506051020 20 201 0.0 17.7 0.00 0.00 0.00 64 1007.7
20260506051015 20 206 1.6 17.7 0.00 0.00 0.00 64 1007.5
20260506050902 20 187 1.6 17.7 0.00 0.00 0.00 64 1007.5
20260506050652 20 185 1.6 17.7 0.00 0.00 0.00 64 1007.5
20260506050640 20 179 1.6 17.7 0.00 0.00 0.00 64 1007.5
20260506050618 20 193 1.6 14.5 0.00 0.00 0.00 64 1007.5
20260506050613 20 191 1.6 16.1 0.00 0.00 0.00 64 1007.4
20260506050609 20 202 1.6 17.7 0.00 0.00 0.00 64 1007.5
20260506050520 20 175 0.0 17.7 0.00 0.00 0.00 64 1007.7
20260506050250 20 138 1.6 16.1 0.00 0.00 0.00 64 1007.5
20260506050206 20 188 1.6 16.1 0.00 0.00 0.00 63 1007.5
20260506050202 20 186 1.6 16.1 0.00 0.00 0.00 63 1007.5
20260506050154 20 190 1.6 16.1 0.00 0.00 0.00 63 1007.5
20260506045041 20 181 1.6 35.4 0.00 0.00 0.00 63 1007.5
20260506045035 20 165 16.1 33.8 0.00 0.00 0.00 63 1007.7
20260506044940 20 157 1.6 35.4 0.00 0.00 0.00 63 1007.5
20260506044856 20 149 1.6 19.3 0.00 0.00 0.00 63 1007.5
20260506044839 20 165 1.6 19.3 0.00 0.00 0.00 63 1007.5
20260506044751 20 188 1.6 19.3 0.00 0.00 0.00 63 1007.5
20260506044742 20 149 1.6 19.3 0.00 0.00 0.00 63 1007.5
20260506044551 20 196 1.6 19.3 0.00 0.00 0.00 63 1007.6
20260506044547 20 157 1.6 19.3 0.00 0.00 0.00 63 1007.6
20260506044520 20 194 0.0 19.3 0.00 0.00 0.00 63 1007.8
20260506044337 20 184 1.6 19.3 0.00 0.00 0.00 63 1007.6
20260506044236 20 181 1.6 19.3 0.00 0.00 0.00 63 1007.6
20260506044154 20 178 1.6 19.3 0.00 0.00 0.00 62 1007.6
20260506044146 20 194 1.6 19.3 0.00 0.00 0.00 63 1007.6
20260506044020 20 186 0.0 19.3 0.00 0.00 0.00 62 1007.8
20260506043936 20 175 1.6 19.3 0.00 0.00 0.00 62 1007.6
20260506043835 20 205 1.6 17.7 0.00 0.00 0.00 62 1007.6
20260506043735 20 161 1.6 17.7 0.00 0.00 0.00 62 1007.6
20260506043638 20 179 1.6 17.7 0.00 0.00 0.00 62 1007.5
20260506043632 20 171 1.6 17.7 0.00 0.00 0.00 62 1007.5
20260506043532 20 165 3.2 17.7 0.00 0.00 0.00 62 1007.6
20260506043520 20 144 1.6 19.3 0.00 0.00 0.00 62 1007.8
20260506043431 20 194 1.6 19.3 0.00 0.00 0.00 62 1007.6
20260506043331 20 165 3.2 19.3 0.00 0.00 0.00 62 1007.6
20260506043244 20 209 3.2 19.3 0.00 0.00 0.00 62 1007.6
20260506043235 20 178 3.2 19.3 0.00 0.00 0.00 62 1007.6
20260506043029 20 157 3.2 19.3 0.00 0.00 0.00 62 1007.6
20260506043020 20 165 0.0 19.3 0.00 0.00 0.00 62 1007.8
20260506042928 20 176 3.2 19.3 0.00 0.00 0.00 62 1007.6
20260506042827 20 124 3.2 19.3 0.00 0.00 0.00 62 1007.5
20260506042727 20 204 3.2 19.3 0.00 0.00 0.00 62 1007.6
20260506042633 20 155 3.2 19.3 0.00 0.00 0.00 62 1007.5
20260506042626 20 193 3.2 19.3 0.00 0.00 0.00 62 1007.5
20260506042526 20 146 1.6 19.3 0.00 0.00 0.00 62 1007.6
20260506042520 20 182 0.0 19.3 0.00 0.00 0.00 62 1007.8
20260506042437 20 222 1.6 19.3 0.00 0.00 0.00 62 1007.5
20260506042433 20 193 1.6 19.3 0.00 0.00 0.00 62 1007.6
20260506042223 20 193 1.6 19.3 0.00 0.00 0.00 62 1007.5
20260506042132 20 159 1.6 19.3 0.00 0.00 0.00 62 1007.5
20260506042122 20 146 1.6 19.3 0.00 0.00 0.00 62 1007.5
20260506042022 20 157 1.6 17.7 0.00 0.00 0.00 62 1007.6
20260506042020 20 176 0.0 17.7 0.00 0.00 0.00 62 1007.7
20260506042003 20 182 1.6 20.9 0.00 0.00 0.00 62 1007.5
20260506041958 20 150 1.6 17.7 0.00 0.00 0.00 62 1007.5
20260506041845 20 173 1.6 17.7 0.00 0.00 0.00 62 1007.5
20260506041835 20 179 1.6 20.9 0.00 0.00 0.00 62 1007.6
20260506041520 20 163 0.0 20.9 0.00 0.00 0.00 62 1007.7
20260506041420 20 180 1.6 20.9 0.00 0.00 0.00 62 1007.5
20260506041403 20 182 3.2 20.9 0.00 0.00 0.00 62 1007.5
20260506041319 20 190 1.6 20.9 0.00 0.00 0.00 62 1007.5
20260506041241 20 155 1.6 20.9 0.00 0.00 0.00 62 1007.5
20260506041118 20 178 3.2 20.9 0.00 0.00 0.00 62 1007.5
20260506041020 20 142 0.0 20.9 0.00 0.00 0.00 62 1007.6
20260506041018 20 171 3.2 20.9 0.00 0.00 0.00 62 1007.5
20260506040917 20 160 3.2 20.9 0.00 0.00 0.00 62 1007.4
20260506040844 20 217 1.6 20.9 0.00 0.00 0.00 62 1007.6
20260506040730 20 166 1.6 14.5 0.00 0.00 0.00 62 1007.5
20260506040722 20 140 1.6 14.5 0.00 0.00 0.00 62 1007.5
20260506040535 20 168 0.0 14.5 0.00 0.00 0.00 62 1007.7
20260506040515 20 197 1.6 14.5 0.00 0.00 0.00 62 1007.5
20260506040415 20 159 1.6 14.5 0.00 0.00 0.00 62 1007.5
20260506040314 20 190 1.6 17.7 0.00 0.00 0.00 62 1007.4
20260506040214 20 166 1.6 17.7 0.00 0.00 0.00 62 1007.4
20260506040131 20 143 1.6 17.7 0.00 0.00 0.00 62 1007.5
20260506040113 20 192 1.6 17.7 0.00 0.00 0.00 62 1007.5
20260506040020 20 155 0.0 22.5 0.00 0.00 0.00 62 1007.6
20260506040013 20 176 1.6 22.5 0.00 0.00 0.00 62 1007.4
20260506035959 20 209 1.6 25.7 0.00 0.00 0.00 62 1007.5
20260506035953 20 184 1.6 25.7 0.00 0.00 0.00 62 1007.5
20260506035949 20 194 1.6 25.7 0.00 0.00 0.00 62 1007.5
20260506035944 20 182 1.6 22.5 0.00 0.00 0.00 62 1007.5
20260506035935 20 200 1.6 22.5 0.00 0.00 0.00 62 1007.4
20260506035520 20 156 4.8 22.5 0.00 0.00 0.00 62 1007.7
20260506035510 20 161 1.6 25.7 0.00 0.00 0.00 62 1007.5
20260506035409 20 170 1.6 25.7 0.00 0.00 0.00 62 1007.5
20260506035351 20 217 1.6 25.7 0.00 0.00 0.00 62 1007.4
20260506035309 20 164 1.6 25.7 0.00 0.00 0.00 62 1007.5
20260506035236 20 159 1.6 25.7 0.00 0.00 0.00 62 1007.4
20260506035108 20 189 0.0 25.7 0.00 0.00 0.00 62 1007.4
20260506035020 20 176 0.0 14.5 0.00 0.00 0.00 62 1007.6
20260506035007 20 176 0.0 25.7 0.00 0.00 0.00 61 1007.4
20260506034907 20 201 0.0 25.7 0.00 0.00 0.00 61 1007.4
20260506034807 20 169 0.0 25.7 0.00 0.00 0.00 61 1007.4
20260506034706 20 217 0.0 14.5 0.00 0.00 0.00 61 1007.4
20260506034625 20 153 0.0 8.0 0.00 0.00 0.00 61 1007.4
20260506034606 20 157 0.0 9.7 0.00 0.00 0.00 61 1007.4
20260506034535 20 157 0.0 9.7 0.00 0.00 0.00 61 1007.6
20260506034527 20 181 0.0 9.7 0.00 0.00 0.00 61 1007.4
20260506034414 20 195 0.0 9.7 0.00 0.00 0.00 61 1007.4
20260506034222 20 212 0.0 19.3 0.00 0.00 0.00 61 1007.4
20260506034217 20 190 0.0 19.3 0.00 0.00 0.00 61 1007.4
20260506034209 20 164 0.0 19.3 0.00 0.00 0.00 61 1007.4
20260506034020 20 190 0.0 19.3 0.00 0.00 0.00 61 1007.6
20260506034002 20 184 0.0 19.3 0.00 0.00 0.00 61 1007.4
20260506033916 20 187 1.6 19.3 0.00 0.00 0.00 61 1007.4
20260506033910 20 182 0.0 19.3 0.00 0.00 0.00 61 1007.4
20260506033700 20 190 1.6 19.3 0.00 0.00 0.00 61 1007.4
20260506033625 20 167 1.6 19.3 0.00 0.00 0.00 61 1007.4
20260506033559 20 170 1.6 19.3 0.00 0.00 0.00 61 1007.3
20260506033520 20 160 0.0 30.6 0.00 0.00 0.00 61 1007.5
20260506033459 20 120 1.6 30.6 0.00 0.00 0.00 61 1007.3
20260506033359 20 153 1.6 30.6 0.00 0.00 0.00 61 1007.2
20260506033258 20 188 1.6 30.6 0.00 0.00 0.00 61 1007.3
20260506033157 20 180 3.2 30.6 0.00 0.00 0.00 61 1007.3
20260506033124 20 209 3.2 30.6 0.00 0.00 0.00 61 1007.3
20260506033056 20 164 3.2 30.6 0.00 0.00 0.00 61 1007.2
20260506033020 20 175 0.0 30.6 0.00 0.00 0.00 61 1007.4
20260506032956 20 188 4.8 30.6 0.00 0.00 0.00 61 1007.3
20260506032909 20 200 6.4 30.6 0.00 0.00 0.00 61 1007.3
20260506032903 20 211 4.8 30.6 0.00 0.00 0.00 60 1007.3
20260506032713 20 161 6.4 30.6 0.00 0.00 0.00 60 1007.3
20260506032708 20 156 4.8 30.6 0.00 0.00 0.00 60 1007.3
20260506032659 20 181 4.8 30.6 0.00 0.00 0.00 60 1007.3
20260506032520 20 194 0.0 24.1 0.00 0.00 0.00 60 1007.4
20260506032453 20 167 6.4 24.1 0.00 0.00 0.00 60 1007.3
20260506032409 20 159 4.8 24.1 0.00 0.00 0.00 60 1007.3
20260506032405 20 198 4.8 24.1 0.00 0.00 0.00 60 1007.3
20260506032400 20 175 6.4 24.1 0.00 0.00 0.00 60 1007.2
20260506032232 20 170 4.8 24.1 0.00 0.00 0.00 60 1007.3
20260506032050 20 155 3.2 22.5 0.00 0.00 0.00 60 1007.3
20260506032020 20 148 22.5 22.5 0.00 0.00 0.00 60 1007.4
20260506032004 20 132 3.2 22.5 0.00 0.00 0.00 60 1007.3
20260506031959 20 148 3.2 22.5 0.00 0.00 0.00 60 1007.3
20260506031749 20 150 1.6 22.5 0.00 0.00 0.00 60 1007.3
20260506031708 20 192 1.6 17.7 0.00 0.00 0.00 60 1007.4
20260506031703 20 0 1.6 22.5 0.00 0.00 0.00 60 1007.3
20260506031655 20 192 1.6 22.5 0.00 0.00 0.00 60 1007.3
20260506031520 20 175 0.0 16.1 0.00 0.00 0.00 60 1007.5
20260506031448 20 147 1.6 16.1 0.00 0.00 0.00 60 1007.4
20260506031347 20 217 1.6 16.1 0.00 0.00 0.00 60 1007.3
20260506031247 20 150 1.6 16.1 0.00 0.00 0.00 60 1007.3
20260506031144 20 132 1.6 16.1 0.00 0.00 0.00 60 1007.3
20260506031125 20 211 1.6 20.9 0.00 0.00 0.00 60 1007.3
20260506031045 20 198 1.6 20.9 0.00 0.00 0.00 60 1007.3
20260506031020 20 360 1.6 20.9 0.00 0.00 0.00 60 1007.5
20260506030943 20 175 1.6 20.9 0.00 0.00 0.00 60 1007.4
20260506030844 20 225 1.6 20.9 0.00 0.00 0.00 59 1007.3
20260506030743 20 147 1.6 20.9 0.00 0.00 0.00 59 1007.3
20260506030703 20 159 1.6 20.9 0.00 0.00 0.00 59 1007.3
20260506030658 20 0 1.6 20.9 0.00 0.00 0.00 59 1007.3
20260506030650 20 197 1.6 20.9 0.00 0.00 0.00 59 1007.3
20260506030520 21 170 0.0 20.9 0.00 0.00 0.00 59 1007.5
20260506030443 20 152 1.6 20.9 0.00 0.00 0.00 59 1007.4
20260506030341 21 159 1.6 20.9 0.00 0.00 0.00 58 1007.4
20260506030241 21 167 1.6 20.9 0.00 0.00 0.00 58 1007.4
20260506030218 21 141 1.6 16.1 0.00 0.00 0.00 58 1007.3
20260506030214 21 0 1.6 16.1 0.00 0.00 0.00 58 1007.3
20260506030210 21 138 1.6 19.3 0.00 0.00 0.00 57 1007.3
20260506030206 21 137 1.6 19.3 0.00 0.00 0.00 57 1007.3
20260506030202 21 154 1.6 19.3 0.00 0.00 0.00 57 1007.4
20260506030156 21 167 1.6 20.9 0.00 0.00 0.00 58 1007.4
20260506030149 21 146 1.6 16.1 0.00 0.00 0.00 58 1007.4
20260506030035 21 0 1.6 19.3 0.00 0.00 0.00 57 1007.5
20260506030028 21 186 1.6 16.1 0.00 0.00 0.00 58 1007.4
20260506030020 21 139 0.0 16.1 0.00 0.00 0.00 58 1007.5
20260506025910 21 169 1.6 16.1 0.00 0.00 0.00 57 1007.4
20260506025520 21 159 0.0 19.3 0.00 0.00 0.00 57 1007.6
20260506025336 21 172 1.6 19.3 0.00 0.00 0.00 56 1007.5
20260506025247 21 134 1.6 19.3 0.00 0.00 0.00 56 1007.4
20260506025243 21 165 1.6 19.3 0.00 0.00 0.00 56 1007.3
20260506025122 21 152 1.6 19.3 0.00 0.00 0.00 56 1007.4
20260506025033 21 147 1.6 19.3 0.00 0.00 0.00 56 1007.4
20260506025020 21 169 9.7 19.3 0.00 0.00 0.00 56 1007.5
20260506024932 21 160 1.6 25.7 0.00 0.00 0.00 55 1007.4
20260506024846 21 0 1.6 25.7 0.00 0.00 0.00 55 1007.5
20260506024840 21 0 1.6 25.7 0.00 0.00 0.00 55 1007.4
20260506024632 21 130 1.6 25.7 0.00 0.00 0.00 55 1007.5
20260506024622 21 0 1.6 25.7 0.00 0.00 0.00 55 1007.5
20260506024531 21 173 1.6 25.7 0.00 0.00 0.00 55 1007.4
20260506024520 21 165 0.0 24.1 0.00 0.00 0.00 55 1007.5
20260506024445 21 172 1.6 25.7 0.00 0.00 0.00 54 1007.4
20260506024439 21 205 1.6 25.7 0.00 0.00 0.00 55 1007.4
20260506024229 21 155 1.6 25.7 0.00 0.00 0.00 54 1007.4
20260506024128 21 143 1.6 25.7 0.00 0.00 0.00 54 1007.4
20260506024121 21 188 1.6 25.7 0.00 0.00 0.00 54 1007.4
20260506024035 21 166 1.6 24.1 0.00 0.00 0.00 54 1007.5
20260506024028 21 144 1.6 25.7 0.00 0.00 0.00 54 1007.5
20260506023927 21 182 0.0 16.1 0.00 0.00 0.00 53 1007.4
20260506023826 21 180 0.0 16.1 0.00 0.00 0.00 53 1007.5
20260506023726 21 168 0.0 16.1 0.00 0.00 0.00 53 1007.4
20260506023628 21 163 0.0 16.1 0.00 0.00 0.00 53 1007.4
20260506023621 21 161 0.0 16.1 0.00 0.00 0.00 53 1007.4
20260506023539 21 162 0.0 16.1 0.00 0.00 0.00 52 1007.5
20260506023533 21 165 0.0 16.1 0.00 0.00 0.00 53 1007.5
20260506023521 21 164 0.0 16.1 0.00 0.00 0.00 53 1007.6
20260506023323 21 195 0.0 16.1 0.00 0.00 0.00 52 1007.5
20260506023243 22 153 0.0 16.1 0.00 0.00 0.00 52 1007.5
20260506023238 21 161 0.0 16.1 0.00 0.00 0.00 52 1007.4
20260506023124 22 153 0.0 16.1 0.00 0.00 0.00 52 1007.5
20260506023023 22 171 0.0 12.9 0.00 0.00 0.00 52 1007.5
20260506023020 22 169 0.0 8.0 0.00 0.00 0.00 52 1007.5
20260506022921 22 177 0.0 17.7 0.00 0.00 0.00 52 1007.4
20260506022821 22 155 0.0 17.7 0.00 0.00 0.00 51 1007.4
20260506022734 22 165 0.0 17.7 0.00 0.00 0.00 51 1007.5
20260506022725 22 0 1.6 17.7 0.00 0.00 0.00 51 1007.5
20260506022520 22 159 0.0 16.1 0.00 0.00 0.00 51 1007.6
20260506022419 22 201 1.6 17.7 0.00 0.00 0.00 51 1007.5
20260506022319 22 153 1.6 17.7 0.00 0.00 0.00 51 1007.5
20260506022217 22 164 1.6 17.7 0.00 0.00 0.00 51 1007.5
20260506022122 22 159 1.6 17.7 0.00 0.00 0.00 50 1007.5
20260506022117 22 153 1.6 17.7 0.00 0.00 0.00 50 1007.5
20260506022035 22 182 8.0 17.7 0.00 0.00 0.00 50 1007.5
20260506022017 22 175 1.6 17.7 0.00 0.00 0.00 50 1007.4
20260506021917 22 184 1.6 17.7 0.00 0.00 0.00 50 1007.4
20260506021831 22 186 1.6 17.7 0.00 0.00 0.00 50 1007.4
20260506021826 22 181 1.6 17.7 0.00 0.00 0.00 50 1007.4
20260506021621 22 189 1.6 17.7 0.00 0.00 0.00 50 1007.4
20260506021616 22 190 1.6 17.7 0.00 0.00 0.00 50 1007.4
20260506021542 22 177 1.6 14.5 0.00 0.00 0.00 50 1007.4
20260506021538 22 140 3.2 14.5 0.00 0.00 0.00 50 1007.4
20260506021533 22 142 1.6 17.7 0.00 0.00 0.00 50 1007.4
20260506021520 22 155 0.0 17.7 0.00 0.00 0.00 50 1007.5
20260506021214 22 167 1.6 19.3 0.00 0.00 0.00 50 1007.4
20260506021120 22 148 1.6 19.3 0.00 0.00 0.00 50 1007.4
20260506021113 22 167 1.6 19.3 0.00 0.00 0.00 50 1007.5
20260506021049 22 200 0.0 19.3 0.00 0.00 0.00 50 1007.5
20260506021013 22 173 1.6 19.3 0.00 0.00 0.00 50 1007.4
20260506020914 22 195 1.6 19.3 0.00 0.00 0.00 49 1007.4
20260506020812 22 188 1.6 19.3 0.00 0.00 0.00 49 1007.4
20260506020712 22 192 1.6 20.9 0.00 0.00 0.00 49 1007.4
20260506020619 22 186 1.6 20.9 0.00 0.00 0.00 49 1007.4
20260506020611 22 186 3.2 20.9 0.00 0.00 0.00 49 1007.3
20260506020535 22 200 0.0 22.5 0.00 0.00 0.00 49 1007.5
20260506020511 22 202 3.2 22.5 0.00 0.00 0.00 49 1007.4
20260506020424 22 209 3.2 22.5 0.00 0.00 0.00 49 1007.4
20260506020419 22 190 3.2 22.5 0.00 0.00 0.00 49 1007.3
20260506020242 22 168 3.2 22.5 0.00 0.00 0.00 49 1007.4
20260506020237 22 184 3.2 22.5 0.00 0.00 0.00 48 1007.4
20260506020232 22 165 3.2 22.5 0.00 0.00 0.00 49 1007.3
20260506020224 22 90 3.2 22.5 0.00 0.00 0.00 49 1007.3
20260506020020 22 196 0.0 22.5 0.00 0.00 0.00 48 1007.5
20260506015908 22 199 3.2 22.5 0.00 0.00 0.00 48 1007.4
20260506015807 22 162 3.2 22.5 0.00 0.00 0.00 48 1007.4
20260506015708 22 160 3.2 22.5 0.00 0.00 0.00 48 1007.4
20260506015618 22 199 3.2 22.5 0.00 0.00 0.00 48 1007.4
20260506015608 22 132 3.2 22.5 0.00 0.00 0.00 48 1007.4
20260506015520 22 167 22.5 22.5 0.00 0.00 0.00 48 1007.3
20260506015506 22 169 3.2 22.5 0.00 0.00 0.00 48 1007.3
20260506015406 22 136 3.2 27.4 0.00 0.00 0.00 48 1007.3
20260506015306 22 179 3.2 27.4 0.00 0.00 0.00 48 1007.3
20260506015204 22 136 3.2 27.4 0.00 0.00 0.00 47 1007.3
20260506015146 23 190 3.2 27.4 0.00 0.00 0.00 47 1007.3
20260506015140 22 147 3.2 27.4 0.00 0.00 0.00 48 1007.3
20260506015134 22 168 3.2 27.4 0.00 0.00 0.00 48 1007.3
20260506015020 22 174 0.0 27.4 0.00 0.00 0.00 47 1007.3
20260506014702 23 150 3.2 27.4 0.00 0.00 0.00 47 1007.3
20260506014619 23 189 3.2 27.4 0.00 0.00 0.00 47 1007.3
20260506014601 23 181 3.2 27.4 0.00 0.00 0.00 47 1007.3
20260506014535 23 143 0.0 27.4 0.00 0.00 0.00 47 1007.2
20260506014500 23 146 3.2 27.4 0.00 0.00 0.00 47 1007.2
20260506014400 23 166 4.8 35.4 0.00 0.00 0.00 47 1007.3
20260506014351 23 167 4.8 35.4 0.00 0.00 0.00 47 1007.2
20260506014340 23 153 4.8 35.4 0.00 0.00 0.00 47 1007.2
20260506014333 23 184 4.8 35.4 0.00 0.00 0.00 47 1007.2
20260506014100 23 173 4.8 35.4 0.00 0.00 0.00 47 1007.2
20260506014020 23 130 4.8 35.4 0.00 0.00 0.00 47 1007.1
20260506014012 23 184 4.8 35.4 0.00 0.00 0.00 47 1007.2
20260506014007 23 151 4.8 35.4 0.00 0.00 0.00 47 1007.1
20260506013757 23 169 4.8 35.4 0.00 0.00 0.00 47 1007.2
20260506013729 23 169 4.8 35.4 0.00 0.00 0.00 46 1007.1
20260506013724 23 212 4.8 35.4 0.00 0.00 0.00 46 1007.1
20260506013718 23 167 4.8 35.4 0.00 0.00 0.00 46 1007.1
20260506013710 23 161 4.8 35.4 0.00 0.00 0.00 46 1007.1
20260506013520 23 150 0.0 35.4 0.00 0.00 0.00 46 1007.1
20260506013441 23 192 3.2 30.6 0.00 0.00 0.00 46 1007.1
20260506013354 23 160 3.2 30.6 0.00 0.00 0.00 46 1007.2
20260506013343 23 192 3.2 30.6 0.00 0.00 0.00 46 1007.1
20260506013337 23 173 3.2 30.6 0.00 0.00 0.00 46 1007.1
20260506013327 23 185 3.2 30.6 0.00 0.00 0.00 46 1007.1
20260506013020 23 148 6.4 30.6 0.00 0.00 0.00 46 1007.1
20260506012959 23 198 3.2 29.0 0.00 0.00 0.00 46 1007.1
20260506012749 23 186 1.6 24.1 0.00 0.00 0.00 46 1007.0
20260506012648 23 155 1.6 24.1 0.00 0.00 0.00 46 1007.1
20260506012614 23 179 1.6 24.1 0.00 0.00 0.00 46 1007.1
20260506012547 23 180 1.6 24.1 0.00 0.00 0.00 46 1007.1
20260506012520 23 163 0.0 24.1 0.00 0.00 0.00 46 1007.1
20260506012447 23 168 1.6 24.1 0.00 0.00 0.00 46 1007.1
20260506012401 23 209 1.6 24.1 0.00 0.00 0.00 46 1007.0
20260506012355 23 177 1.6 24.1 0.00 0.00 0.00 46 1007.0
20260506012146 23 137 1.6 16.1 0.00 0.00 0.00 46 1007.0
20260506012114 23 150 1.6 16.1 0.00 0.00 0.00 46 1007.1
20260506012045 23 188 1.6 16.1 0.00 0.00 0.00 46 1007.1
20260506012020 23 178 0.0 16.1 0.00 0.00 0.00 46 1007.0
20260506011946 23 186 1.6 16.1 0.00 0.00 0.00 46 1007.0
20260506011845 23 191 1.6 24.1 0.00 0.00 0.00 45 1007.0
20260506011744 23 194 1.6 25.7 0.00 0.00 0.00 45 1007.1
20260506011703 23 160 1.6 25.7 0.00 0.00 0.00 45 1007.0
20260506011658 23 199 1.6 25.7 0.00 0.00 0.00 45 1007.0
20260506011650 23 0 1.6 25.7 0.00 0.00 0.00 45 1007.0
20260506011520 23 169 0.0 25.7 0.00 0.00 0.00 45 1007.0
20260506011443 23 195 1.6 25.7 0.00 0.00 0.00 45 1007.0
20260506011343 23 151 1.6 25.7 0.00 0.00 0.00 45 1006.9
20260506011242 23 198 1.6 25.7 0.00 0.00 0.00 45 1006.9